Time,TemperatureF,DewpointF,PressureIn,WindDirection,WindDirectionDegrees,WindSpeedMPH,WindSpeedGustMPH,Humidity,HourlyPrecipIn,Conditions,Clouds,dailyrainin,SolarRadiationWatts/m^2,SoftwareType,DateUTC
2013-11-25 00:00:00,24.4,-2.6,29.93,West,265,0.0,20.0,30,0.00,,-RA,0.00,0.00,VWS V14.01,2013-11-25 05:00:00,
2013-11-25 00:01:00,19.2,-2.2,30.25,West,264,8.0,10.0,38,0.00,,CLR,0.01,0.00,VWS V14.01,2013-11-25 05:01:00,
2013-11-25 00:05:00,24.4,-3.3,29.93,NW,311,12.0,21.0,29,0.00,,-RA,0.00,0.00,VWS V14.01,2013-11-25 05:05:00,
2013-11-25 00:06:00,19.2,-2.2,30.25,West,278,2.0,4.0,38,0.00,,CLR,0.00,0.00,VWS V14.01,2013-11-25 05:06:00,
2013-11-25 00:10:00,24.4,-3.3,29.93,WNW,295,17.0,19.0,29,0.00,,-RA,0.00,0.00,VWS V14.01,2013-11-25 05:10:00,
2013-11-25 00:11:00,19.1,-2.3,30.25,West,278,5.0,6.0,38,0.00,,CLR,0.00,0.00,VWS V14.01,2013-11-25 05:11:00,
2013-11-25 00:15:00,24.2,-4.2,29.93,SW,236,8.0,15.0,28,0.00,,-RA,0.00,0.00,VWS V14.01,2013-11-25 05:15:00,
2013-11-25 00:16:00,19.1,-2.3,30.25,West,278,2.0,2.0,38,0.00,,CLR,0.00,0.00,VWS V14.01,2013-11-25 05:16:00,
2013-11-25 00:20:00,24.1,-5.0,29.93,West,270,12.0,24.0,27,0.00,,-RA,0.00,0.00,VWS V14.01,2013-11-25 05:20:00,
2013-11-25 00:21:00,18.9,-2.0,30.25,WNW,287,3.0,10.0,39,0.00,,CLR,0.00,0.00,VWS V14.01,2013-11-25 05:21:00,
2013-11-25 00:25:00,23.9,-6.8,29.93,NNW,342,8.0,20.0,25,0.00,,-RA,0.00,0.00,VWS V14.01,2013-11-25 05:25:00,
2013-11-25 00:26:00,18.9,-2.0,30.25,NW,312,0.0,9.0,39,0.00,,CLR,0.00,0.00,VWS V14.01,2013-11-25 05:26:00,
2013-11-25 00:30:00,23.6,-7.1,29.93,NW,304,1.0,8.0,25,0.00,,-RA,0.00,0.00,VWS V14.01,2013-11-25 05:30:00,
2013-11-25 00:31:00,18.9,-2.0,30.25,WNW,284,3.0,5.0,39,0.00,,CLR,0.00,0.00,VWS V14.01,2013-11-25 05:31:00,
2013-11-25 00:35:00,23.5,-7.1,29.93,West,270,2.0,10.0,25,0.00,,-RA,0.00,0.00,VWS V14.01,2013-11-25 05:35:00,
2013-11-25 00:36:00,18.9,-2.0,30.25,NW,318,6.0,8.0,39,0.00,,CLR,0.00,0.00,VWS V14.01,2013-11-25 05:36:00,
2013-11-25 00:40:00,23.2,-8.2,29.93,WSW,250,2.0,18.0,24,0.00,,-RA,0.00,0.00,VWS V14.01,2013-11-25 05:40:00,
2013-11-25 00:41:00,18.8,-2.0,30.25,West,264,2.0,4.0,39,0.00,,CLR,0.00,0.00,VWS V14.01,2013-11-25 05:41:00,
2013-11-25 00:45:00,23.0,-9.3,29.93,West,281,6.0,15.0,23,0.00,,-RA,0.00,0.00,VWS V14.01,2013-11-25 05:45:00,
2013-11-25 00:46:00,18.8,-1.5,30.25,West,268,3.0,12.0,40,0.00,,CLR,0.00,0.00,VWS V14.01,2013-11-25 05:46:00,
2013-11-25 00:50:00,22.9,-9.4,29.93,NW,304,0.0,13.0,23,0.00,,-RA,0.00,0.00,VWS V14.01,2013-11-25 05:50:00,
2013-11-25 00:51:00,18.8,-1.5,30.25,WSW,251,3.0,10.0,40,0.00,,CLR,0.00,0.00,VWS V14.01,2013-11-25 05:51:00,
2013-11-25 00:55:00,22.7,-8.7,29.93,West,268,12.0,12.0,24,0.00,,-RA,0.00,0.00,VWS V14.01,2013-11-25 05:55:00,
2013-11-25 00:56:00,18.8,-1.5,30.25,West,280,4.0,11.0,40,0.00,,CLR,0.00,0.00,VWS V14.01,2013-11-25 05:56:00,
2013-11-25 01:00:00,22.5,-8.8,29.94,WSW,250,11.0,17.0,24,0.00,,-RA,0.00,0.00,VWS V14.01,2013-11-25 06:00:00,
2013-11-25 01:01:00,18.8,-1.5,30.25,WSW,258,4.0,7.0,40,0.00,,CLR,0.00,0.00,VWS V14.01,2013-11-25 06:01:00,
2013-11-25 01:05:00,22.4,-8.9,29.94,West,278,19.0,19.0,24,0.00,,-RA,0.00,0.00,VWS V14.01,2013-11-25 06:05:00,
2013-11-25 01:06:00,18.8,-1.5,30.25,WNW,301,2.0,7.0,40,0.00,,CLR,0.00,0.00,VWS V14.01,2013-11-25 06:06:00,
2013-11-25 01:10:00,22.2,-8.3,29.94,NNW,342,2.0,13.0,25,0.00,,-RA,0.00,0.00,VWS V14.01,2013-11-25 06:10:00,
2013-11-25 01:11:00,18.8,-1.5,30.25,WNW,287,5.0,12.0,40,0.00,,CLR,0.00,0.00,VWS V14.01,2013-11-25 06:11:00,
2013-11-25 01:15:00,22.2,-7.5,29.94,North,356,10.0,14.0,26,0.00,,-RA,0.00,0.00,VWS V14.01,2013-11-25 06:15:00,
2013-11-25 01:16:00,18.8,-1.5,30.25,WSW,257,2.0,6.0,40,0.00,,CLR,0.00,0.00,VWS V14.01,2013-11-25 06:16:00,
2013-11-25 01:20:00,22.1,-6.8,29.94,WNW,291,2.0,12.0,27,0.00,,-RA,0.00,0.00,VWS V14.01,2013-11-25 06:20:00,
2013-11-25 01:21:00,18.6,-1.2,30.25,West,264,7.0,10.0,41,0.00,,CLR,0.00,0.00,VWS V14.01,2013-11-25 06:21:00,
2013-11-25 01:25:00,21.8,-7.0,29.94,NW,312,3.0,12.0,27,0.00,,-RA,0.00,0.00,VWS V14.01,2013-11-25 06:25:00,
2013-11-25 01:26:00,18.8,-1.0,30.25,WNW,292,4.0,10.0,41,0.00,,CLR,0.00,0.00,VWS V14.01,2013-11-25 06:26:00,
2013-11-25 01:30:00,21.6,-7.2,29.95,NNW,329,7.0,10.0,27,0.00,,-RA,0.00,0.00,VWS V14.01,2013-11-25 06:30:00,
2013-11-25 01:31:00,18.6,-1.2,30.24,NW,312,3.0,10.0,41,0.00,,CLR,0.00,0.00,VWS V14.01,2013-11-25 06:31:00,
2013-11-25 01:35:00,21.4,-7.4,29.95,North,0,14.0,14.0,27,0.00,,-RA,0.00,0.00,VWS V14.01,2013-11-25 06:35:00,
2013-11-25 01:36:00,18.6,-1.2,30.24,WNW,292,0.0,10.0,41,0.00,,CLR,0.00,0.00,VWS V14.01,2013-11-25 06:36:00,
2013-11-25 01:40:00,21.3,-7.5,29.95,WNW,284,10.0,14.0,27,0.00,,-RA,0.00,0.00,VWS V14.01,2013-11-25 06:40:00,
2013-11-25 01:41:00,18.4,-0.9,30.24,NW,325,5.0,11.0,42,0.00,,CLR,0.00,0.00,VWS V14.01,2013-11-25 06:41:00,
2013-11-25 01:45:00,21.1,-7.6,29.95,West,280,8.0,17.0,27,0.00,,-RA,0.00,0.00,VWS V14.01,2013-11-25 06:45:00,
2013-11-25 01:46:00,18.4,-0.9,30.25,WNW,288,1.0,11.0,42,0.00,,CLR,0.00,0.00,VWS V14.01,2013-11-25 06:46:00,
2013-11-25 01:50:00,21.1,-7.6,29.95,WSW,258,5.0,11.0,27,0.00,,-RA,0.00,0.00,VWS V14.01,2013-11-25 06:50:00,
2013-11-25 01:51:00,18.6,-0.7,30.25,WNW,302,1.0,8.0,42,0.00,,CLR,0.00,0.00,VWS V14.01,2013-11-25 06:51:00,
2013-11-25 01:55:00,21.0,-8.5,29.95,WSW,237,12.0,17.0,26,0.00,,-RA,0.00,0.00,VWS V14.01,2013-11-25 06:55:00,
2013-11-25 01:56:00,18.6,-0.7,30.25,West,274,6.0,9.0,42,0.00,,CLR,0.00,0.00,VWS V14.01,2013-11-25 06:56:00,
2013-11-25 02:00:00,21.0,-7.7,29.95,WSW,243,10.0,12.0,27,0.00,,-RA,0.00,0.00,VWS V14.01,2013-11-25 07:00:00,
2013-11-25 02:01:00,18.6,-0.7,30.25,West,278,4.0,10.0,42,0.00,,CLR,0.00,0.00,VWS V14.01,2013-11-25 07:01:00,
2013-11-25 02:05:00,20.8,-8.7,29.95,NW,318,19.0,19.0,26,0.00,,-RA,0.00,0.00,VWS V14.01,2013-11-25 07:05:00,
2013-11-25 02:06:00,18.4,-0.9,30.25,WNW,296,7.0,12.0,42,0.00,,CLR,0.00,0.00,VWS V14.01,2013-11-25 07:06:00,
2013-11-25 02:10:00,20.8,-7.9,29.95,WNW,282,8.0,10.0,27,0.00,,-RA,0.00,0.00,VWS V14.01,2013-11-25 07:10:00,
2013-11-25 02:11:00,18.4,-0.9,30.25,WSW,258,4.0,10.0,42,0.00,,CLR,0.00,0.00,VWS V14.01,2013-11-25 07:11:00,
2013-11-25 02:15:00,20.6,-8.1,29.95,WSW,257,5.0,18.0,27,0.00,,-RA,0.00,0.00,VWS V14.01,2013-11-25 07:15:00,
2013-11-25 02:16:00,18.4,-0.9,30.25,WNW,302,5.0,7.0,42,0.00,,CLR,0.00,0.00,VWS V14.01,2013-11-25 07:16:00,
2013-11-25 02:20:00,20.6,-7.3,29.95,WNW,296,4.0,18.0,28,0.00,,-RA,0.00,0.00,VWS V14.01,2013-11-25 07:20:00,
2013-11-25 02:21:00,18.6,-0.7,30.25,WSW,258,1.0,7.0,42,0.00,,CLR,0.00,0.00,VWS V14.01,2013-11-25 07:21:00,
2013-11-25 02:25:00,20.5,-7.4,29.95,West,265,7.0,12.0,28,0.00,,-RA,0.00,0.00,VWS V14.01,2013-11-25 07:25:00,
2013-11-25 02:26:00,18.6,-0.7,30.25,West,278,4.0,14.0,42,0.00,,CLR,0.00,0.00,VWS V14.01,2013-11-25 07:26:00,
2013-11-25 02:30:00,20.5,-7.4,29.95,WSW,250,8.0,12.0,28,0.00,,-RA,0.00,0.00,VWS V14.01,2013-11-25 07:30:00,
2013-11-25 02:31:00,18.4,-0.9,30.25,West,260,5.0,6.0,42,0.00,,CLR,0.00,0.00,VWS V14.01,2013-11-25 07:31:00,
2013-11-25 02:35:00,20.3,-7.6,29.95,West,260,2.0,18.0,28,0.00,,-RA,0.00,0.00,VWS V14.01,2013-11-25 07:35:00,
2013-11-25 02:36:00,18.3,-0.9,30.25,West,260,1.0,3.0,42,0.00,,CLR,0.00,0.00,VWS V14.01,2013-11-25 07:36:00,
2013-11-25 02:40:00,20.3,-7.6,29.95,NNW,335,5.0,17.0,28,0.00,,-RA,0.00,0.00,VWS V14.01,2013-11-25 07:40:00,
2013-11-25 02:41:00,18.3,-0.9,30.25,West,281,5.0,12.0,42,0.00,,CLR,0.00,0.00,VWS V14.01,2013-11-25 07:41:00,
2013-11-25 02:45:00,20.2,-7.7,29.95,West,265,14.0,14.0,28,0.00,,-RA,0.00,0.00,VWS V14.01,2013-11-25 07:45:00,
2013-11-25 02:46:00,18.3,-0.9,30.26,West,280,4.0,11.0,42,0.00,,CLR,0.00,0.00,VWS V14.01,2013-11-25 07:46:00,
2013-11-25 02:50:00,20.2,-7.0,29.95,WSW,257,12.0,17.0,29,0.00,,-RA,0.00,0.00,VWS V14.01,2013-11-25 07:50:00,
2013-11-25 02:51:00,18.3,-0.9,30.26,West,260,1.0,6.0,42,0.00,,CLR,0.00,0.00,VWS V14.01,2013-11-25 07:51:00,
2013-11-25 02:55:00,20.2,-7.0,29.95,WNW,284,7.0,15.0,29,0.00,,-RA,0.00,0.00,VWS V14.01,2013-11-25 07:55:00,
2013-11-25 02:56:00,18.3,-0.9,30.26,West,263,3.0,7.0,42,0.00,,CLR,0.00,0.00,VWS V14.01,2013-11-25 07:56:00,
2013-11-25 03:05:00,18.4,-1.4,30.25,WNW,295,0.0,0.0,41,0.00,,CLR,0.00,0.00,VWS V14.01,2013-11-25 08:05:00,
2013-11-25 03:10:00,18.4,-1.4,30.25,WSW,246,5.0,5.0,41,0.00,,CLR,0.00,0.00,VWS V14.01,2013-11-25 08:10:00,
2013-11-25 03:15:00,18.3,-2.0,30.25,West,280,3.0,7.0,40,0.00,,CLR,0.00,0.00,VWS V14.01,2013-11-25 08:15:00,
2013-11-25 03:20:00,18.3,-2.0,30.26,WSW,257,3.0,6.0,40,0.00,,CLR,0.00,0.00,VWS V14.01,2013-11-25 08:20:00,
2013-11-25 03:25:00,18.3,-2.0,30.26,West,261,1.0,4.0,40,0.00,,CLR,0.00,0.00,VWS V14.01,2013-11-25 08:25:00,
2013-11-25 03:30:00,18.3,-2.0,30.26,WNW,284,2.0,3.0,40,0.00,,CLR,0.00,0.00,VWS V14.01,2013-11-25 08:30:00,
2013-11-25 03:35:00,18.1,-2.2,30.25,West,260,2.0,10.0,40,0.00,,CLR,0.00,0.00,VWS V14.01,2013-11-25 08:35:00,
2013-11-25 03:40:00,18.1,-2.2,30.25,WNW,282,2.0,5.0,40,0.00,,CLR,0.00,0.00,VWS V14.01,2013-11-25 08:40:00,
2013-11-25 03:45:00,18.0,-2.2,30.25,WSW,256,2.0,8.0,40,0.00,,CLR,0.00,0.00,VWS V14.01,2013-11-25 08:45:00,
2013-11-25 03:50:00,18.0,-2.2,30.26,West,268,3.0,6.0,40,0.00,,CLR,0.00,0.00,VWS V14.01,2013-11-25 08:50:00,
2013-11-25 03:55:00,18.0,-2.2,30.26,WSW,251,6.0,6.0,40,0.00,,CLR,0.00,0.00,VWS V14.01,2013-11-25 08:55:00,
2013-11-25 04:00:00,18.0,-2.2,30.26,SW,232,6.0,9.0,40,0.00,,CLR,0.00,0.00,VWS V14.01,2013-11-25 09:00:00,
2013-11-25 04:05:00,18.1,-2.2,30.27,WSW,239,9.0,10.0,40,0.00,,CLR,0.00,0.00,VWS V14.01,2013-11-25 09:05:00,
2013-11-25 04:10:00,18.1,-2.2,30.27,WSW,247,5.0,8.0,40,0.00,,CLR,0.00,0.00,VWS V14.01,2013-11-25 09:10:00,
2013-11-25 04:15:00,18.1,-2.2,30.27,West,267,1.0,6.0,40,0.00,,CLR,0.00,0.00,VWS V14.01,2013-11-25 09:15:00,
2013-11-25 04:20:00,18.0,-2.2,30.28,West,280,0.0,7.0,40,0.00,,CLR,0.00,0.00,VWS V14.01,2013-11-25 09:20:00,
2013-11-25 04:25:00,18.0,-2.2,30.28,West,278,0.0,6.0,40,0.00,,CLR,0.00,0.00,VWS V14.01,2013-11-25 09:25:00,
2013-11-25 04:30:00,18.0,-2.2,30.28,West,270,0.0,4.0,40,0.00,,CLR,0.00,0.00,VWS V14.01,2013-11-25 09:30:00,
2013-11-25 04:35:00,18.0,-2.2,30.28,WSW,248,1.0,2.0,40,0.00,,CLR,0.00,0.00,VWS V14.01,2013-11-25 09:35:00,
2013-11-25 04:40:00,18.0,-2.2,30.28,West,261,0.0,3.0,40,0.00,,CLR,0.00,0.00,VWS V14.01,2013-11-25 09:40:00,
2013-11-25 04:45:00,18.0,-2.2,30.28,West,260,2.0,6.0,40,0.00,,CLR,0.00,0.00,VWS V14.01,2013-11-25 09:45:00,
2013-11-25 04:50:00,18.0,-2.2,30.28,WSW,243,2.0,4.0,40,0.00,,CLR,0.00,0.00,VWS V14.01,2013-11-25 09:50:00,
2013-11-25 04:55:00,18.0,-2.2,30.28,WSW,243,0.0,0.0,40,0.00,,CLR,0.00,0.00,VWS V14.01,2013-11-25 09:55:00,
2013-11-25 05:00:00,17.8,-2.4,30.28,WSW,243,0.0,2.0,40,0.00,,CLR,0.00,0.00,VWS V14.01,2013-11-25 10:00:00,
2013-11-25 05:05:00,17.8,-1.9,30.28,WSW,243,0.0,0.0,41,0.00,,CLR,0.00,0.00,VWS V14.01,2013-11-25 10:05:00,
2013-11-25 05:10:00,17.8,-1.9,30.28,WSW,241,0.0,2.0,41,0.00,,CLR,0.00,0.00,VWS V14.01,2013-11-25 10:10:00,
2013-11-25 05:15:00,17.8,-1.9,30.28,WSW,241,0.0,0.0,41,0.00,,CLR,0.00,0.00,VWS V14.01,2013-11-25 10:15:00,
2013-11-25 05:19:00,17.7,-2.0,30.29,WSW,241,0.0,0.0,41,0.00,,CLR,0.00,0.00,VWS V14.01,2013-11-25 10:19:00,
2013-11-25 05:20:00,18.9,-6.1,29.96,NW,322,12.0,16.0,32,0.00,,-RA,0.00,0.00,VWS V14.01,2013-11-25 10:20:00,
2013-11-25 05:24:00,17.7,-2.0,30.29,WSW,241,0.0,5.0,41,0.00,,CLR,0.00,0.00,VWS V14.01,2013-11-25 10:24:00,
2013-11-25 05:25:00,18.8,-5.5,29.96,NNW,339,7.0,19.0,33,0.00,,-RA,0.00,0.00,VWS V14.01,2013-11-25 10:25:00,
2013-11-25 05:29:00,17.7,-2.0,30.29,SSW,212,0.0,2.0,41,0.00,,CLR,0.00,0.00,VWS V14.01,2013-11-25 10:29:00,
2013-11-25 05:30:00,18.8,-5.5,29.97,West,275,14.0,20.0,33,0.00,,-RA,0.00,0.00,VWS V14.01,2013-11-25 10:30:00,
2013-11-25 05:34:00,17.7,-1.5,30.29,SSW,212,0.0,1.0,42,0.00,,CLR,0.00,0.00,VWS V14.01,2013-11-25 10:34:00,
2013-11-25 05:35:00,18.6,-5.1,29.97,West,275,11.0,22.0,34,0.00,,-RA,0.00,0.00,VWS V14.01,2013-11-25 10:35:00,
2013-11-25 05:39:00,17.5,-1.7,30.29,SSW,212,1.0,3.0,42,0.00,,CLR,0.00,0.00,VWS V14.01,2013-11-25 10:39:00,
2013-11-25 05:40:00,18.6,-5.1,29.97,WSW,254,16.0,24.0,34,0.00,,-RA,0.00,0.00,VWS V14.01,2013-11-25 10:40:00,
2013-11-25 05:44:00,17.5,-1.7,30.29,SSW,212,0.0,1.0,42,0.00,,CLR,0.00,0.00,VWS V14.01,2013-11-25 10:44:00,
2013-11-25 05:45:00,18.4,-4.7,29.97,NW,326,2.0,25.0,35,0.00,,-RA,0.00,0.00,VWS V14.01,2013-11-25 10:45:00,
2013-11-25 05:49:00,17.3,-1.9,30.30,SSW,212,0.0,0.0,42,0.00,,CLR,0.00,0.00,VWS V14.01,2013-11-25 10:49:00,
2013-11-25 05:50:00,18.4,-4.7,29.97,WNW,284,10.0,21.0,35,0.00,,-RA,0.00,0.00,VWS V14.01,2013-11-25 10:50:00,
2013-11-25 05:54:00,17.3,-1.9,30.30,SW,226,0.0,6.0,42,0.00,,CLR,0.00,0.00,VWS V14.01,2013-11-25 10:54:00,
2013-11-25 05:55:00,18.3,-4.2,29.97,WSW,257,5.0,12.0,36,0.00,,-RA,0.00,0.00,VWS V14.01,2013-11-25 10:55:00,
2013-11-25 05:59:00,17.3,-1.9,30.30,SW,230,0.0,0.0,42,0.00,,CLR,0.00,0.00,VWS V14.01,2013-11-25 10:59:00,
2013-11-25 06:00:00,18.3,-4.2,29.98,West,277,5.0,18.0,36,0.00,,-RA,0.00,0.00,VWS V14.01,2013-11-25 11:00:00,
2013-11-25 06:04:00,17.3,-1.4,30.30,SW,232,0.0,3.0,43,0.00,,CLR,0.00,0.00,VWS V14.01,2013-11-25 11:04:00,
2013-11-25 06:05:00,18.3,-4.2,29.98,West,260,11.0,21.0,36,0.00,,-RA,0.00,0.00,VWS V14.01,2013-11-25 11:05:00,
2013-11-25 06:09:00,17.3,-1.4,30.30,WSW,240,5.0,7.0,43,0.00,,CLR,0.00,0.00,VWS V14.01,2013-11-25 11:09:00,
2013-11-25 06:10:00,18.3,-4.2,29.98,NW,311,8.0,13.0,36,0.00,,-RA,0.00,0.00,VWS V14.01,2013-11-25 11:10:00,
2013-11-25 06:14:00,17.3,-1.4,30.30,WSW,239,0.0,2.0,43,0.00,,CLR,0.00,0.00,VWS V14.01,2013-11-25 11:14:00,
2013-11-25 06:15:00,18.3,-4.8,29.99,NW,316,6.0,18.0,35,0.00,,-RA,0.00,0.00,VWS V14.01,2013-11-25 11:15:00,
2013-11-25 06:19:00,17.5,-1.2,30.30,WSW,257,2.0,8.0,43,0.00,,CLR,0.00,0.00,VWS V14.01,2013-11-25 11:19:00,
2013-11-25 06:20:00,18.3,-4.2,29.99,West,265,0.0,8.0,36,0.00,,-RA,0.00,0.00,VWS V14.01,2013-11-25 11:20:00,
2013-11-25 06:24:00,17.5,-1.2,30.30,WSW,251,0.0,2.0,43,0.00,,CLR,0.00,0.00,VWS V14.01,2013-11-25 11:24:00,
2013-11-25 06:25:00,18.3,-4.8,29.99,WNW,282,16.0,20.0,35,0.00,,-RA,0.00,0.00,VWS V14.01,2013-11-25 11:25:00,
2013-11-25 06:29:00,17.3,-1.4,30.30,WSW,251,0.0,2.0,43,0.00,,CLR,0.00,0.00,VWS V14.01,2013-11-25 11:29:00,
2013-11-25 06:30:00,18.3,-4.2,29.99,WNW,287,19.0,20.0,36,0.00,,-RA,0.00,0.00,VWS V14.01,2013-11-25 11:30:00,
2013-11-25 06:34:00,17.5,-1.2,30.30,WSW,250,1.0,3.0,43,0.00,,CLR,0.00,0.00,VWS V14.01,2013-11-25 11:34:00,
2013-11-25 06:35:00,18.3,-4.2,29.99,NW,305,11.0,21.0,36,0.00,,-RA,0.00,0.00,VWS V14.01,2013-11-25 11:35:00,
2013-11-25 06:39:00,17.5,-0.7,30.30,WSW,250,1.0,1.0,44,0.00,,CLR,0.00,0.00,VWS V14.01,2013-11-25 11:39:00,
2013-11-25 06:40:00,18.3,-4.2,29.99,West,277,6.0,19.0,36,0.00,,-RA,0.00,0.00,VWS V14.01,2013-11-25 11:40:00,
2013-11-25 06:44:00,17.5,-0.7,30.30,SW,236,1.0,6.0,44,0.00,,CLR,0.00,0.00,VWS V14.01,2013-11-25 11:44:00,
2013-11-25 06:45:00,18.3,-4.2,30.00,NNW,329,6.0,19.0,36,0.00,,-RA,0.00,0.00,VWS V14.01,2013-11-25 11:45:00,
2013-11-25 06:49:00,17.3,-0.9,30.31,WSW,237,2.0,6.0,44,0.00,,CLR,0.00,0.00,VWS V14.01,2013-11-25 11:49:00,
2013-11-25 06:50:00,18.1,-4.3,30.00,WNW,292,6.0,11.0,36,0.00,,-RA,0.00,0.00,VWS V14.01,2013-11-25 11:50:00,
2013-11-25 06:54:00,17.5,-0.7,30.31,WSW,237,1.0,2.0,44,0.00,,CLR,0.00,0.00,VWS V14.01,2013-11-25 11:54:00,
2013-11-25 06:55:00,18.0,-3.9,30.00,SSW,199,2.0,6.0,37,0.00,,-RA,0.00,0.00,VWS V14.01,2013-11-25 11:55:00,
2013-11-25 06:59:00,17.5,-0.7,30.31,WSW,237,0.0,2.0,44,0.00,,CLR,0.00,0.00,VWS V14.01,2013-11-25 11:59:00,
2013-11-25 07:00:00,18.0,-3.3,30.01,NNW,332,12.0,22.0,38,0.00,,-RA,0.00,0.00,VWS V14.01,2013-11-25 12:00:00,
2013-11-25 07:04:00,17.5,-0.7,30.31,WSW,239,3.0,5.0,44,0.00,,CLR,0.00,0.00,VWS V14.01,2013-11-25 12:04:00,
2013-11-25 07:05:00,18.0,-3.9,30.01,NW,325,11.0,19.0,37,0.00,,-RA,0.00,0.00,VWS V14.01,2013-11-25 12:05:00,
2013-11-25 07:09:00,17.7,-0.5,30.31,West,277,0.0,6.0,44,0.00,,CLR,0.00,0.00,VWS V14.01,2013-11-25 12:09:00,
2013-11-25 07:10:00,18.0,-3.9,30.01,NNW,330,13.0,22.0,37,0.00,,-RA,0.00,7.00,VWS V14.01,2013-11-25 12:10:00,
2013-11-25 07:14:00,17.8,-0.4,30.31,NW,305,1.0,10.0,44,0.00,,CLR,0.00,7.00,VWS V14.01,2013-11-25 12:14:00,
2013-11-25 07:15:00,18.0,-3.9,30.01,North,353,8.0,16.0,37,0.00,,-RA,0.00,11.00,VWS V14.01,2013-11-25 12:15:00,
2013-11-25 07:19:00,18.0,-0.2,30.32,West,261,2.0,7.0,44,0.00,,CLR,0.00,9.00,VWS V14.01,2013-11-25 12:19:00,
2013-11-25 07:20:00,18.0,-3.9,30.01,NW,319,1.0,18.0,37,0.00,,-RA,0.00,16.00,VWS V14.01,2013-11-25 12:20:00,
2013-11-25 07:24:00,18.1,-0.1,30.32,WSW,257,1.0,6.0,44,0.00,,CLR,0.00,12.00,VWS V14.01,2013-11-25 12:24:00,
2013-11-25 07:25:00,18.0,-3.9,30.01,NW,306,4.0,16.0,37,0.00,,-RA,0.00,18.00,VWS V14.01,2013-11-25 12:25:00,
2013-11-25 07:29:00,18.3,0.1,30.32,West,265,3.0,7.0,44,0.00,,CLR,0.00,16.00,VWS V14.01,2013-11-25 12:29:00,
2013-11-25 07:30:00,18.1,-3.8,30.01,NNW,330,10.0,17.0,37,0.00,,-RA,0.00,21.00,VWS V14.01,2013-11-25 12:30:00,
2013-11-25 07:34:00,18.4,0.1,30.33,WSW,244,6.0,8.0,44,0.00,,CLR,0.00,23.00,VWS V14.01,2013-11-25 12:34:00,
2013-11-25 07:35:00,18.3,-3.6,30.01,NNW,343,12.0,20.0,37,0.00,,-RA,0.00,33.00,VWS V14.01,2013-11-25 12:35:00,
2013-11-25 07:39:00,18.8,0.0,30.33,SSW,210,3.0,8.0,43,0.00,,CLR,0.00,60.00,VWS V14.01,2013-11-25 12:39:00,
2013-11-25 07:40:00,18.3,-3.6,30.01,NNW,344,14.0,21.0,37,0.00,,-RA,0.00,63.00,VWS V14.01,2013-11-25 12:40:00,
2013-11-25 07:44:00,19.1,0.3,30.33,West,264,3.0,7.0,43,0.00,,CLR,0.00,81.00,VWS V14.01,2013-11-25 12:44:00,
2013-11-25 07:45:00,18.4,-3.5,30.02,NW,309,6.0,13.0,37,0.00,,-RA,0.00,88.00,VWS V14.01,2013-11-25 12:45:00,
2013-11-25 07:49:00,19.2,0.4,30.33,West,264,0.0,4.0,43,0.00,,CLR,0.00,107.00,VWS V14.01,2013-11-25 12:49:00,
2013-11-25 07:50:00,18.4,-4.1,30.02,NW,323,8.0,17.0,36,0.00,,-RA,0.00,100.00,VWS V14.01,2013-11-25 12:50:00,
2013-11-25 07:54:00,19.5,0.7,30.33,WSW,253,4.0,4.0,43,0.00,,CLR,0.00,114.00,VWS V14.01,2013-11-25 12:54:00,
2013-11-25 07:55:00,18.4,-4.1,30.02,NNW,340,17.0,20.0,36,0.00,,-RA,0.00,109.00,VWS V14.01,2013-11-25 12:55:00,
2013-11-25 07:59:00,19.9,1.0,30.33,WNW,298,6.0,6.0,43,0.00,,CLR,0.00,84.00,VWS V14.01,2013-11-25 12:59:00,
2013-11-25 08:00:00,18.4,-4.1,30.02,WNW,289,18.0,25.0,36,0.00,,-RA,0.00,106.00,VWS V14.01,2013-11-25 13:00:00,
2013-11-25 08:04:00,19.9,1.0,30.33,West,260,5.0,12.0,43,0.00,,CLR,0.00,86.00,VWS V14.01,2013-11-25 13:04:00,
2013-11-25 08:05:00,18.6,-3.9,30.02,WNW,295,10.0,29.0,36,0.00,,-RA,0.00,107.00,VWS V14.01,2013-11-25 13:05:00,
2013-11-25 08:09:00,20.0,1.1,30.33,West,274,5.0,6.0,43,0.00,,CLR,0.00,95.00,VWS V14.01,2013-11-25 13:09:00,
2013-11-25 08:10:00,18.6,-3.9,30.02,West,267,13.0,21.0,36,0.00,,-RA,0.00,130.00,VWS V14.01,2013-11-25 13:10:00,
2013-11-25 08:14:00,20.2,1.3,30.33,WSW,239,3.0,8.0,43,0.00,,CLR,0.00,153.00,VWS V14.01,2013-11-25 13:14:00,
2013-11-25 08:15:00,18.6,-4.5,30.02,WNW,301,9.0,16.0,35,0.00,,-RA,0.00,139.00,VWS V14.01,2013-11-25 13:15:00,
2013-11-25 08:19:00,20.3,1.4,30.33,WNW,287,4.0,6.0,43,0.00,,CLR,0.00,132.00,VWS V14.01,2013-11-25 13:19:00,
2013-11-25 08:20:00,18.8,-4.9,30.02,West,274,19.0,20.0,34,0.00,,-RA,0.00,171.00,VWS V14.01,2013-11-25 13:20:00,
2013-11-25 08:24:00,20.5,1.6,30.33,WNW,285,4.0,7.0,43,0.00,,CLR,0.00,188.00,VWS V14.01,2013-11-25 13:24:00,
2013-11-25 08:25:00,18.8,-4.3,30.02,North,352,10.0,22.0,35,0.00,,-RA,0.00,185.00,VWS V14.01,2013-11-25 13:25:00,
2013-11-25 08:29:00,20.6,2.2,30.33,WNW,302,3.0,6.0,44,0.00,,CLR,0.00,246.00,VWS V14.01,2013-11-25 13:29:00,
2013-11-25 08:30:00,18.9,-5.4,30.02,WSW,247,5.0,24.0,33,0.00,,-RA,0.00,197.00,VWS V14.01,2013-11-25 13:30:00,
2013-11-25 08:34:00,21.0,2.0,30.33,WNW,287,10.0,10.0,43,0.00,,CLR,0.00,245.00,VWS V14.01,2013-11-25 13:34:00,
2013-11-25 08:35:00,19.1,-5.3,30.02,West,280,14.0,19.0,33,0.00,,-RA,0.00,208.00,VWS V14.01,2013-11-25 13:35:00,
2013-11-25 08:39:00,21.3,2.3,30.33,West,267,4.0,10.0,43,0.00,,CLR,0.00,243.00,VWS V14.01,2013-11-25 13:39:00,
2013-11-25 08:40:00,19.2,-4.6,30.02,North,357,6.0,8.0,34,0.00,,-RA,0.00,220.00,VWS V14.01,2013-11-25 13:40:00,
2013-11-25 08:44:00,21.8,3.2,30.33,WNW,289,2.0,3.0,44,0.00,,CLR,0.00,236.00,VWS V14.01,2013-11-25 13:44:00,
2013-11-25 08:45:00,19.5,-4.9,30.04,WSW,248,17.0,19.0,33,0.00,,-RA,0.00,236.00,VWS V14.01,2013-11-25 13:45:00,
2013-11-25 08:49:00,22.2,2.6,30.33,WNW,292,3.0,10.0,42,0.00,,CLR,0.00,245.00,VWS V14.01,2013-11-25 13:49:00,
2013-11-25 08:50:00,19.4,-5.0,30.04,North,349,6.0,14.0,33,0.00,,-RA,0.00,253.00,VWS V14.01,2013-11-25 13:50:00,
2013-11-25 08:54:00,22.2,3.1,30.33,NNW,342,5.0,10.0,43,0.00,,CLR,0.00,252.00,VWS V14.01,2013-11-25 13:54:00,
2013-11-25 08:55:00,19.5,-5.6,30.04,NNW,330,9.0,19.0,32,0.00,,-RA,0.00,206.00,VWS V14.01,2013-11-25 13:55:00,
2013-11-25 08:59:00,22.5,2.9,30.33,NNW,332,6.0,7.0,42,0.00,,CLR,0.00,262.00,VWS V14.01,2013-11-25 13:59:00,
2013-11-25 09:00:00,19.7,-4.7,30.05,NNW,337,8.0,10.0,33,0.00,,-RA,0.00,285.00,VWS V14.01,2013-11-25 14:00:00,
2013-11-25 09:04:00,22.5,2.9,30.33,WNW,295,7.0,7.0,42,0.00,,CLR,0.00,248.00,VWS V14.01,2013-11-25 14:04:00,
2013-11-25 09:05:00,19.7,-6.0,30.05,West,270,6.0,21.0,31,0.00,,-RA,0.00,299.00,VWS V14.01,2013-11-25 14:05:00,
2013-11-25 09:09:00,22.7,2.5,30.33,WNW,285,2.0,8.0,41,0.00,,CLR,0.00,280.00,VWS V14.01,2013-11-25 14:09:00,
2013-11-25 09:10:00,20.0,-5.8,30.05,NNW,347,6.0,12.0,31,0.00,,-RA,0.00,345.00,VWS V14.01,2013-11-25 14:10:00,
2013-11-25 09:14:00,23.0,2.3,30.33,West,260,1.0,7.0,40,0.00,,CLR,0.00,303.00,VWS V14.01,2013-11-25 14:14:00,
2013-11-25 09:15:00,20.3,-5.5,30.05,WSW,240,18.0,18.0,31,0.00,,-RA,0.00,357.00,VWS V14.01,2013-11-25 14:15:00,
2013-11-25 09:19:00,23.3,2.6,30.33,WNW,282,5.0,8.0,40,0.00,,CLR,0.00,303.00,VWS V14.01,2013-11-25 14:19:00,
2013-11-25 09:20:00,20.0,-6.4,30.05,NNW,336,6.0,20.0,30,0.00,,-RA,0.00,130.00,VWS V14.01,2013-11-25 14:20:00,
2013-11-25 09:24:00,23.6,2.3,30.33,NNW,346,6.0,7.0,39,0.00,,CLR,0.00,327.00,VWS V14.01,2013-11-25 14:24:00,
2013-11-25 09:25:00,20.2,-4.9,30.05,NNW,330,10.0,19.0,32,0.00,,-RA,0.00,424.00,VWS V14.01,2013-11-25 14:25:00,
2013-11-25 09:29:00,23.8,3.0,30.33,West,277,3.0,5.0,40,0.00,,CLR,0.00,333.00,VWS V14.01,2013-11-25 14:29:00,
2013-11-25 09:30:00,20.3,-6.2,30.07,West,280,14.0,21.0,30,0.00,,-RA,0.00,197.00,VWS V14.01,2013-11-25 14:30:00,
2013-11-25 09:34:00,24.1,2.7,30.33,WSW,243,5.0,7.0,39,0.00,,CLR,0.00,338.00,VWS V14.01,2013-11-25 14:34:00,
2013-11-25 09:35:00,20.3,-5.5,30.07,North,356,8.0,17.0,31,0.00,,-RA,0.00,208.00,VWS V14.01,2013-11-25 14:35:00,
2013-11-25 09:39:00,24.5,2.5,30.33,West,261,1.0,6.0,38,0.00,,CLR,0.00,343.00,VWS V14.01,2013-11-25 14:39:00,
2013-11-25 09:40:00,20.6,-5.2,30.07,North,0,13.0,15.0,31,0.00,,-RA,0.00,401.00,VWS V14.01,2013-11-25 14:40:00,
2013-11-25 09:44:00,24.5,2.0,30.33,West,264,10.0,13.0,37,0.00,,CLR,0.00,348.00,VWS V14.01,2013-11-25 14:44:00,
2013-11-25 09:45:00,20.6,-5.2,30.07,NNW,329,3.0,25.0,31,0.00,,-RA,0.00,387.00,VWS V14.01,2013-11-25 14:45:00,
2013-11-25 09:49:00,24.2,2.3,30.34,WSW,256,6.0,10.0,38,0.00,,CLR,0.00,355.00,VWS V14.01,2013-11-25 14:49:00,
2013-11-25 09:50:00,20.8,-5.7,30.07,NNW,328,5.0,11.0,30,0.00,,-RA,0.00,204.00,VWS V14.01,2013-11-25 14:50:00,
2013-11-25 09:54:00,24.5,2.5,30.34,WNW,289,6.0,8.0,38,0.00,,CLR,0.00,364.00,VWS V14.01,2013-11-25 14:54:00,
2013-11-25 09:55:00,20.8,-5.7,30.07,NNW,332,11.0,14.0,30,0.00,,-RA,0.00,289.00,VWS V14.01,2013-11-25 14:55:00,
2013-11-25 09:59:00,24.7,2.2,30.34,West,265,1.0,11.0,37,0.00,,CLR,0.00,371.00,VWS V14.01,2013-11-25 14:59:00,
2013-11-25 10:00:00,20.5,-6.0,30.07,WNW,296,1.0,17.0,30,0.00,,-RA,0.00,253.00,VWS V14.01,2013-11-25 15:00:00,
2013-11-25 10:04:00,25.0,3.0,30.34,NW,306,2.0,11.0,38,0.00,,CLR,0.00,378.00,VWS V14.01,2013-11-25 15:04:00,
2013-11-25 10:05:00,21.0,-4.9,30.07,WNW,302,10.0,13.0,31,0.00,,-RA,0.00,348.00,VWS V14.01,2013-11-25 15:05:00,
2013-11-25 10:09:00,25.0,3.0,30.34,NNW,343,3.0,7.0,38,0.00,,CLR,0.00,387.00,VWS V14.01,2013-11-25 15:09:00,
2013-11-25 10:10:00,21.1,-5.5,30.07,NNW,335,9.0,17.0,30,0.00,,-RA,0.00,282.00,VWS V14.01,2013-11-25 15:10:00,
2013-11-25 10:14:00,25.4,3.3,30.34,NW,305,3.0,5.0,38,0.00,,CLR,0.00,396.00,VWS V14.01,2013-11-25 15:14:00,
2013-11-25 10:15:00,21.1,-4.8,30.07,WNW,301,21.0,21.0,31,0.00,,-RA,0.00,257.00,VWS V14.01,2013-11-25 15:15:00,
2013-11-25 10:19:00,25.3,3.3,30.34,NNW,335,5.0,6.0,38,0.00,,CLR,0.00,401.00,VWS V14.01,2013-11-25 15:19:00,
2013-11-25 10:20:00,20.8,-5.7,30.07,North,0,18.0,18.0,30,0.00,,-RA,0.00,280.00,VWS V14.01,2013-11-25 15:20:00,
2013-11-25 10:24:00,25.8,2.5,30.34,West,271,6.0,8.0,36,0.00,,CLR,0.00,408.00,VWS V14.01,2013-11-25 15:24:00,
2013-11-25 10:25:00,21.3,-4.6,30.07,WNW,298,2.0,18.0,31,0.00,,-RA,0.00,262.00,VWS V14.01,2013-11-25 15:25:00,
2013-11-25 10:29:00,26.1,2.8,30.34,West,267,3.0,7.0,36,0.00,,CLR,0.00,413.00,VWS V14.01,2013-11-25 15:29:00,
2013-11-25 10:30:00,21.1,-5.5,30.08,WNW,295,3.0,16.0,30,0.00,,-RA,0.00,243.00,VWS V14.01,2013-11-25 15:30:00,
2013-11-25 10:34:00,26.4,3.1,30.34,SSW,205,0.0,6.0,36,0.00,,CLR,0.00,422.00,VWS V14.01,2013-11-25 15:34:00,
2013-11-25 10:35:00,21.0,-4.2,30.08,NW,319,7.0,21.0,32,0.00,,-RA,0.00,218.00,VWS V14.01,2013-11-25 15:35:00,
2013-11-25 10:39:00,26.7,2.7,30.34,West,270,3.0,5.0,35,0.00,,CLR,0.00,426.00,VWS V14.01,2013-11-25 15:39:00,
2013-11-25 10:40:00,20.8,-5.7,30.08,NW,320,5.0,19.0,30,0.00,,-RA,0.00,202.00,VWS V14.01,2013-11-25 15:40:00,
2013-11-25 10:44:00,27.0,3.0,30.34,WSW,256,1.0,5.0,35,0.00,,CLR,0.00,433.00,VWS V14.01,2013-11-25 15:44:00,
2013-11-25 10:45:00,20.8,-5.1,30.08,NW,326,13.0,19.0,31,0.00,,-RA,0.00,215.00,VWS V14.01,2013-11-25 15:45:00,
2013-11-25 10:49:00,26.7,3.3,30.33,WSW,244,3.0,12.0,36,0.00,,CLR,0.00,436.00,VWS V14.01,2013-11-25 15:49:00,
2013-11-25 10:50:00,20.8,-5.1,30.08,NNW,342,7.0,19.0,31,0.00,,-RA,0.00,229.00,VWS V14.01,2013-11-25 15:50:00,
2013-11-25 10:54:00,26.4,3.1,30.33,NW,305,3.0,6.0,36,0.00,,CLR,0.00,438.00,VWS V14.01,2013-11-25 15:54:00,
2013-11-25 10:55:00,20.6,-4.6,30.08,North,352,15.0,17.0,32,0.00,,-RA,0.00,230.00,VWS V14.01,2013-11-25 15:55:00,
2013-11-25 10:59:00,26.9,3.5,30.33,SSW,212,3.0,11.0,36,0.00,,CLR,0.00,443.00,VWS V14.01,2013-11-25 15:59:00,
2013-11-25 11:00:00,20.8,-5.1,30.08,North,0,10.0,20.0,31,0.00,,-RA,0.00,317.00,VWS V14.01,2013-11-25 16:00:00,
2013-11-25 11:04:00,26.7,3.3,30.33,WSW,253,7.0,7.0,36,0.00,,CLR,0.00,447.00,VWS V14.01,2013-11-25 16:04:00,
2013-11-25 11:05:00,21.0,-4.2,30.08,WNW,289,8.0,17.0,32,0.00,,-RA,0.00,208.00,VWS V14.01,2013-11-25 16:05:00,
2013-11-25 11:09:00,27.2,4.4,30.33,South,191,0.0,4.0,37,0.00,,CLR,0.00,450.00,VWS V14.01,2013-11-25 16:09:00,
2013-11-25 11:10:00,21.0,-4.2,30.08,NW,322,9.0,16.0,32,0.00,,-RA,0.00,271.00,VWS V14.01,2013-11-25 16:10:00,
2013-11-25 11:14:00,27.2,3.8,30.33,SSW,210,7.0,10.0,36,0.00,,CLR,0.00,452.00,VWS V14.01,2013-11-25 16:14:00,
2013-11-25 11:15:00,21.0,-4.2,30.08,NW,320,13.0,19.0,32,0.00,,-RA,0.00,230.00,VWS V14.01,2013-11-25 16:15:00,
2013-11-25 11:19:00,27.0,3.6,30.32,SSW,209,0.0,7.0,36,0.00,,CLR,0.00,457.00,VWS V14.01,2013-11-25 16:19:00,
2013-11-25 11:20:00,21.3,-2.7,30.08,North,3,12.0,12.0,34,0.00,,-RA,0.00,232.00,VWS V14.01,2013-11-25 16:20:00,
2013-11-25 11:24:00,27.6,4.2,30.32,WSW,254,6.0,8.0,36,0.00,,CLR,0.00,454.00,VWS V14.01,2013-11-25 16:24:00,
2013-11-25 11:25:00,21.1,-2.9,30.08,North,0,8.0,21.0,34,0.00,,-RA,0.00,202.00,VWS V14.01,2013-11-25 16:25:00,
2013-11-25 11:29:00,27.9,3.8,30.32,SSW,203,6.0,7.0,35,0.00,,CLR,0.00,465.00,VWS V14.01,2013-11-25 16:29:00,
2013-11-25 11:30:00,21.3,-4.0,30.08,NNW,333,16.0,16.0,32,0.00,,-RA,0.00,225.00,VWS V14.01,2013-11-25 16:30:00,
2013-11-25 11:34:00,28.1,4.0,30.31,West,271,1.0,9.0,35,0.00,,CLR,0.00,465.00,VWS V14.01,2013-11-25 16:34:00,
2013-11-25 11:35:00,21.3,-4.0,30.08,North,354,10.0,25.0,32,0.00,,-RA,0.00,255.00,VWS V14.01,2013-11-25 16:35:00,
2013-11-25 11:39:00,29.0,4.2,30.31,WSW,257,5.0,5.0,34,0.00,,CLR,0.00,465.00,VWS V14.01,2013-11-25 16:39:00,
2013-11-25 11:40:00,21.3,-4.0,30.08,North,0,14.0,18.0,32,0.00,,-RA,0.00,218.00,VWS V14.01,2013-11-25 16:40:00,
2013-11-25 11:44:00,28.8,3.3,30.31,WNW,296,4.0,5.0,33,0.00,,CLR,0.00,466.00,VWS V14.01,2013-11-25 16:44:00,
2013-11-25 11:45:00,21.4,-3.9,30.08,NW,305,10.0,20.0,32,0.00,,-RA,0.00,202.00,VWS V14.01,2013-11-25 16:45:00,
2013-11-25 11:49:00,28.2,3.5,30.31,WNW,295,0.0,2.0,34,0.00,,CLR,0.00,466.00,VWS V14.01,2013-11-25 16:49:00,
2013-11-25 11:50:00,21.8,-3.5,30.08,WNW,301,5.0,19.0,32,0.00,,-RA,0.00,408.00,VWS V14.01,2013-11-25 16:50:00,
2013-11-25 11:54:00,28.8,4.6,30.31,WSW,253,6.0,7.0,35,0.00,,CLR,0.00,466.00,VWS V14.01,2013-11-25 16:54:00,
2013-11-25 11:55:00,22.1,-3.9,30.08,NW,325,12.0,13.0,31,0.00,,-RA,0.00,568.00,VWS V14.01,2013-11-25 16:55:00,
2013-11-25 11:59:00,28.8,4.0,30.31,WSW,257,10.0,10.0,34,0.00,,CLR,0.00,466.00,VWS V14.01,2013-11-25 16:59:00,
2013-11-25 12:00:00,22.2,-2.5,30.09,North,359,16.0,19.0,33,0.01,,-RA,0.01,352.00,VWS V14.01,2013-11-25 17:00:00,
2013-11-25 12:04:00,28.4,4.2,30.31,SSW,210,3.0,7.0,35,0.00,,CLR,0.00,466.00,VWS V14.01,2013-11-25 17:04:00,
2013-11-25 12:05:00,22.1,-3.2,30.09,NNW,342,16.0,26.0,32,0.01,,-RA,0.01,262.00,VWS V14.01,2013-11-25 17:05:00,
2013-11-25 12:09:00,28.5,4.3,30.31,SSW,193,8.0,12.0,35,0.00,,CLR,0.00,466.00,VWS V14.01,2013-11-25 17:09:00,
2013-11-25 12:10:00,22.2,-4.5,30.09,North,357,11.0,25.0,30,0.01,,-RA,0.01,501.00,VWS V14.01,2013-11-25 17:10:00,
2013-11-25 12:14:00,29.0,4.8,30.31,South,178,6.0,7.0,35,0.00,,CLR,0.00,465.00,VWS V14.01,2013-11-25 17:14:00,
2013-11-25 12:15:00,22.4,-4.3,30.08,WNW,296,10.0,14.0,30,0.01,,-RA,0.01,289.00,VWS V14.01,2013-11-25 17:15:00,
2013-11-25 12:19:00,29.3,4.4,30.30,WSW,243,9.0,9.0,34,0.00,,CLR,0.00,463.00,VWS V14.01,2013-11-25 17:19:00,
2013-11-25 12:20:00,22.5,-2.9,30.08,WNW,292,19.0,19.0,32,0.01,,-RA,0.01,183.00,VWS V14.01,2013-11-25 17:20:00,
2013-11-25 12:24:00,29.4,3.9,30.30,South,184,5.0,5.0,33,0.00,,CLR,0.00,461.00,VWS V14.01,2013-11-25 17:24:00,
2013-11-25 12:25:00,22.5,-2.9,30.08,WNW,288,7.0,15.0,32,0.01,,-RA,0.01,183.00,VWS V14.01,2013-11-25 17:25:00,
2013-11-25 12:29:00,29.7,4.1,30.30,SW,222,4.0,6.0,33,0.00,,CLR,0.00,459.00,VWS V14.01,2013-11-25 17:29:00,
2013-11-25 12:30:00,22.5,-2.2,30.08,North,353,7.0,15.0,33,0.01,,-RA,0.01,452.00,VWS V14.01,2013-11-25 17:30:00,
2013-11-25 12:34:00,29.8,4.2,30.29,SSE,155,8.0,10.0,33,0.00,,CLR,0.00,457.00,VWS V14.01,2013-11-25 17:34:00,
2013-11-25 12:35:00,22.7,-2.1,30.08,NNW,340,15.0,18.0,33,0.01,,-RA,0.01,408.00,VWS V14.01,2013-11-25 17:35:00,
2013-11-25 12:39:00,29.8,4.2,30.29,South,174,0.0,2.0,33,0.00,,CLR,0.00,457.00,VWS V14.01,2013-11-25 17:39:00,
2013-11-25 12:40:00,22.4,-1.7,30.08,North,352,8.0,22.0,34,0.01,,-RA,0.01,406.00,VWS V14.01,2013-11-25 17:40:00,
2013-11-25 12:44:00,29.7,3.5,30.29,NNW,344,2.0,6.0,32,0.00,,CLR,0.00,194.00,VWS V14.01,2013-11-25 17:44:00,
2013-11-25 12:45:00,23.2,-2.9,30.08,WNW,288,12.0,14.0,31,0.01,,-RA,0.01,417.00,VWS V14.01,2013-11-25 17:45:00,
2013-11-25 12:49:00,30.0,4.4,30.28,WSW,241,8.0,9.0,33,0.00,,CLR,0.00,461.00,VWS V14.01,2013-11-25 17:49:00,
2013-11-25 12:50:00,23.2,-5.1,30.08,NW,316,5.0,18.0,28,0.01,,-RA,0.01,475.00,VWS V14.01,2013-11-25 17:50:00,
2013-11-25 12:54:00,29.8,4.2,30.28,South,186,5.0,7.0,33,0.00,,CLR,0.00,443.00,VWS V14.01,2013-11-25 17:54:00,
2013-11-25 12:55:00,23.2,-5.8,30.08,NNW,330,17.0,22.0,27,0.01,,-RA,0.01,357.00,VWS V14.01,2013-11-25 17:55:00,
2013-11-25 12:59:00,30.0,3.7,30.28,WSW,257,4.0,10.0,32,0.00,,CLR,0.00,435.00,VWS V14.01,2013-11-25 17:59:00,
2013-11-25 13:00:00,23.2,-3.6,30.08,North,359,9.0,21.0,30,0.01,,-RA,0.01,384.00,VWS V14.01,2013-11-25 18:00:00,
2013-11-25 13:04:00,29.7,4.1,30.28,WNW,282,2.0,5.0,33,0.00,,CLR,0.00,429.00,VWS V14.01,2013-11-25 18:04:00,
2013-11-25 13:05:00,23.3,-5.7,30.08,NNW,343,9.0,18.0,27,0.00,,-RA,0.01,433.00,VWS V14.01,2013-11-25 18:05:00,
2013-11-25 13:09:00,30.0,4.4,30.28,WSW,239,5.0,8.0,33,0.00,,CLR,0.00,422.00,VWS V14.01,2013-11-25 18:09:00,
2013-11-25 13:10:00,23.3,-6.5,30.08,NNW,346,6.0,18.0,26,0.00,,-RA,0.01,109.00,VWS V14.01,2013-11-25 18:10:00,
2013-11-25 13:14:00,30.4,4.1,30.28,South,182,4.0,4.0,32,0.00,,CLR,0.00,422.00,VWS V14.01,2013-11-25 18:14:00,
2013-11-25 13:15:00,23.3,-5.7,30.09,NW,322,11.0,19.0,27,0.00,,-RA,0.01,150.00,VWS V14.01,2013-11-25 18:15:00,
2013-11-25 13:19:00,30.7,4.3,30.27,West,264,10.0,10.0,32,0.00,,CLR,0.00,417.00,VWS V14.01,2013-11-25 18:19:00,
2013-11-25 13:20:00,23.3,-6.5,30.09,West,265,6.0,18.0,26,0.00,,-RA,0.01,167.00,VWS V14.01,2013-11-25 18:20:00,
2013-11-25 13:24:00,30.7,4.3,30.27,South,186,6.0,9.0,32,0.00,,CLR,0.00,410.00,VWS V14.01,2013-11-25 18:24:00,
2013-11-25 13:25:00,23.6,-5.5,30.09,NNW,339,10.0,16.0,27,0.00,,-RA,0.01,473.00,VWS V14.01,2013-11-25 18:25:00,
2013-11-25 13:29:00,30.7,4.3,30.27,SSE,162,1.0,6.0,32,0.00,,CLR,0.00,399.00,VWS V14.01,2013-11-25 18:29:00,
2013-11-25 13:30:00,23.6,-7.1,30.09,North,356,14.0,24.0,25,0.00,,-RA,0.01,130.00,VWS V14.01,2013-11-25 18:30:00,
2013-11-25 13:34:00,30.9,4.5,30.26,SSW,208,8.0,8.0,32,0.00,,CLR,0.00,392.00,VWS V14.01,2013-11-25 18:34:00,
2013-11-25 13:35:00,23.5,-7.1,30.09,North,352,19.0,19.0,25,0.00,,-RA,0.01,461.00,VWS V14.01,2013-11-25 18:35:00,
2013-11-25 13:39:00,31.2,4.8,30.26,SSW,206,6.0,10.0,32,0.00,,CLR,0.00,389.00,VWS V14.01,2013-11-25 18:39:00,
2013-11-25 13:40:00,23.9,-7.6,30.09,NNW,337,13.0,24.0,24,0.00,,-RA,0.01,362.00,VWS V14.01,2013-11-25 18:40:00,
2013-11-25 13:44:00,31.0,4.6,30.26,SSE,161,3.0,7.0,32,0.00,,CLR,0.00,322.00,VWS V14.01,2013-11-25 18:44:00,
2013-11-25 13:45:00,23.9,-8.5,30.09,NW,325,5.0,20.0,23,0.00,,-RA,0.01,310.00,VWS V14.01,2013-11-25 18:45:00,
2013-11-25 13:49:00,31.2,4.1,30.26,South,178,5.0,8.0,31,0.00,,CLR,0.00,377.00,VWS V14.01,2013-11-25 18:49:00,
2013-11-25 13:50:00,23.8,-8.6,30.09,North,11,10.0,16.0,23,0.00,,-RA,0.01,114.00,VWS V14.01,2013-11-25 18:50:00,
2013-11-25 13:54:00,30.9,3.8,30.26,South,185,2.0,6.0,31,0.00,,CLR,0.00,364.00,VWS V14.01,2013-11-25 18:54:00,
2013-11-25 13:55:00,23.8,-8.6,30.09,North,4,20.0,21.0,23,0.00,,-RA,0.01,380.00,VWS V14.01,2013-11-25 18:55:00,
2013-11-25 13:59:00,31.0,3.9,30.26,West,272,7.0,8.0,31,0.00,,CLR,0.00,357.00,VWS V14.01,2013-11-25 18:59:00,
2013-11-25 14:00:00,23.9,-8.5,30.10,NW,318,7.0,19.0,23,0.00,,-RA,0.01,387.00,VWS V14.01,2013-11-25 19:00:00,
2013-11-25 14:04:00,31.2,3.4,30.25,SSW,196,8.0,8.0,30,0.00,,CLR,0.00,345.00,VWS V14.01,2013-11-25 19:04:00,
2013-11-25 14:05:00,24.1,-8.3,30.10,WNW,302,8.0,25.0,23,0.00,,-RA,0.01,313.00,VWS V14.01,2013-11-25 19:05:00,
2013-11-25 14:09:00,31.0,3.9,30.25,SW,216,0.0,7.0,31,0.00,,CLR,0.00,338.00,VWS V14.01,2013-11-25 19:09:00,
2013-11-25 14:10:00,24.1,-8.3,30.10,NNW,336,1.0,18.0,23,0.00,,-RA,0.01,160.00,VWS V14.01,2013-11-25 19:10:00,
2013-11-25 14:14:00,31.5,4.4,30.25,South,184,4.0,7.0,31,0.00,,CLR,0.00,320.00,VWS V14.01,2013-11-25 19:14:00,
2013-11-25 14:15:00,24.2,-6.5,30.11,North,0,4.0,14.0,25,0.00,,-RA,0.01,146.00,VWS V14.01,2013-11-25 19:15:00,
2013-11-25 14:19:00,31.8,3.2,30.25,SSW,203,7.0,10.0,29,0.00,,CLR,0.00,308.00,VWS V14.01,2013-11-25 19:19:00,
2013-11-25 14:20:00,23.9,-8.5,30.11,NW,326,3.0,13.0,23,0.00,,-RA,0.01,113.00,VWS V14.01,2013-11-25 19:20:00,
2013-11-25 14:24:00,31.3,3.5,30.25,SSW,210,3.0,10.0,30,0.00,,CLR,0.00,253.00,VWS V14.01,2013-11-25 19:24:00,
2013-11-25 14:25:00,23.8,-8.6,30.11,NW,313,8.0,19.0,23,0.00,,-RA,0.01,171.00,VWS V14.01,2013-11-25 19:25:00,
2013-11-25 14:29:00,31.2,3.4,30.25,South,191,8.0,8.0,30,0.00,,CLR,0.00,165.00,VWS V14.01,2013-11-25 19:29:00,
2013-11-25 14:30:00,23.6,-6.2,30.11,North,0,18.0,24.0,26,0.00,,-RA,0.01,197.00,VWS V14.01,2013-11-25 19:30:00,
2013-11-25 14:34:00,30.9,3.8,30.25,SW,226,10.0,10.0,31,0.00,,CLR,0.00,116.00,VWS V14.01,2013-11-25 19:34:00,
2013-11-25 14:35:00,23.8,-6.1,30.11,NNW,333,2.0,11.0,26,0.00,,-RA,0.01,125.00,VWS V14.01,2013-11-25 19:35:00,
2013-11-25 14:39:00,30.6,2.9,30.25,SSW,209,2.0,8.0,30,0.00,,CLR,0.00,162.00,VWS V14.01,2013-11-25 19:39:00,
2013-11-25 14:40:00,23.9,-7.6,30.11,North,0,8.0,24.0,24,0.00,,-RA,0.01,114.00,VWS V14.01,2013-11-25 19:40:00,
2013-11-25 14:44:00,30.6,2.9,30.25,SSW,205,6.0,9.0,30,0.00,,CLR,0.00,176.00,VWS V14.01,2013-11-25 19:44:00,
2013-11-25 14:45:00,23.6,-8.8,30.13,NNW,337,8.0,21.0,23,0.00,,-RA,0.01,116.00,VWS V14.01,2013-11-25 19:45:00,
2013-11-25 14:49:00,30.3,2.6,30.24,SSW,192,7.0,13.0,30,0.00,,CLR,0.00,104.00,VWS V14.01,2013-11-25 19:49:00,
2013-11-25 14:50:00,23.3,-8.1,30.13,North,0,12.0,24.0,24,0.00,,-RA,0.01,127.00,VWS V14.01,2013-11-25 19:50:00,
2013-11-25 14:54:00,30.0,2.3,30.24,SW,219,4.0,10.0,30,0.00,,CLR,0.00,77.00,VWS V14.01,2013-11-25 19:54:00,
2013-11-25 14:55:00,23.2,-5.8,30.13,West,261,4.0,16.0,27,0.00,,-RA,0.01,128.00,VWS V14.01,2013-11-25 19:55:00,
2013-11-25 14:59:00,30.0,3.0,30.24,SSW,210,7.0,8.0,31,0.00,,CLR,0.00,99.00,VWS V14.01,2013-11-25 19:59:00,
2013-11-25 15:00:00,23.3,-3.5,30.13,WNW,285,10.0,17.0,30,0.00,,-RA,0.01,276.00,VWS V14.01,2013-11-25 20:00:00,
2013-11-25 15:04:00,30.1,2.4,30.25,SSW,205,6.0,8.0,30,0.00,,CLR,0.00,93.00,VWS V14.01,2013-11-25 20:04:00,
2013-11-25 15:05:00,23.6,-4.7,30.13,SW,216,18.0,20.0,28,0.00,,-RA,0.01,223.00,VWS V14.01,2013-11-25 20:05:00,
2013-11-25 15:09:00,30.3,2.6,30.25,SSW,213,6.0,7.0,30,0.00,,CLR,0.00,97.00,VWS V14.01,2013-11-25 20:09:00,
2013-11-25 15:10:00,23.6,-4.7,30.13,WNW,292,8.0,21.0,28,0.00,,-RA,0.01,127.00,VWS V14.01,2013-11-25 20:10:00,
2013-11-25 15:14:00,30.4,3.4,30.25,SSW,196,4.0,7.0,31,0.00,,CLR,0.00,128.00,VWS V14.01,2013-11-25 20:14:00,
2013-11-25 15:15:00,23.6,-5.5,30.14,NW,309,17.0,17.0,27,0.00,,-RA,0.01,183.00,VWS V14.01,2013-11-25 20:15:00,
2013-11-25 15:19:00,30.4,4.1,30.25,South,189,5.0,8.0,32,0.00,,CLR,0.00,53.00,VWS V14.01,2013-11-25 20:19:00,
2013-11-25 15:20:00,23.6,-5.5,30.14,WNW,284,7.0,16.0,27,0.00,,-RA,0.01,146.00,VWS V14.01,2013-11-25 20:20:00,
2013-11-25 15:24:00,30.0,3.7,30.25,SSW,205,3.0,11.0,32,0.00,,CLR,0.00,48.00,VWS V14.01,2013-11-25 20:24:00,
2013-11-25 15:25:00,23.6,-4.7,30.14,West,281,22.0,22.0,28,0.00,,-RA,0.01,150.00,VWS V14.01,2013-11-25 20:25:00,
2013-11-25 15:29:00,29.8,4.2,30.25,SSW,212,3.0,9.0,33,0.00,,CLR,0.00,141.00,VWS V14.01,2013-11-25 20:29:00,
2013-11-25 15:30:00,23.6,-5.5,30.14,West,270,7.0,13.0,27,0.00,,-RA,0.01,99.00,VWS V14.01,2013-11-25 20:30:00,
2013-11-25 15:34:00,30.1,3.8,30.25,South,188,1.0,4.0,32,0.00,,CLR,0.00,33.00,VWS V14.01,2013-11-25 20:34:00,
2013-11-25 15:35:00,23.3,-6.5,30.14,North,353,13.0,22.0,26,0.00,,-RA,0.01,150.00,VWS V14.01,2013-11-25 20:35:00,
2013-11-25 15:39:00,29.8,3.5,30.25,SSW,202,1.0,10.0,32,0.00,,CLR,0.00,30.00,VWS V14.01,2013-11-25 20:39:00,
2013-11-25 15:40:00,23.2,-6.6,30.14,North,354,2.0,17.0,26,0.00,,-RA,0.01,83.00,VWS V14.01,2013-11-25 20:40:00,
2013-11-25 15:44:00,29.7,2.8,30.25,SSW,206,6.0,11.0,31,0.00,,CLR,0.00,33.00,VWS V14.01,2013-11-25 20:44:00,
2013-11-25 15:45:00,23.0,-6.8,30.15,NNW,346,5.0,19.0,26,0.00,,-RA,0.01,88.00,VWS V14.01,2013-11-25 20:45:00,
2013-11-25 15:49:00,29.5,3.3,30.26,SSW,195,6.0,8.0,32,0.00,,CLR,0.00,42.00,VWS V14.01,2013-11-25 20:49:00,
2013-11-25 15:50:00,23.2,-7.4,30.15,North,352,11.0,20.0,25,0.00,,-RA,0.01,48.00,VWS V14.01,2013-11-25 20:50:00,
2013-11-25 15:54:00,29.7,3.5,30.26,SW,219,3.0,11.0,32,0.00,,CLR,0.00,37.00,VWS V14.01,2013-11-25 20:54:00,
2013-11-25 15:55:00,23.2,-5.8,30.15,NNW,343,11.0,17.0,27,0.00,,-RA,0.01,58.00,VWS V14.01,2013-11-25 20:55:00,
2013-11-25 15:59:00,29.7,3.5,30.26,South,186,2.0,11.0,32,0.00,,CLR,0.00,35.00,VWS V14.01,2013-11-25 20:59:00,
2013-11-25 16:00:00,23.0,-6.8,30.15,North,350,7.0,14.0,26,0.00,,-RA,0.01,65.00,VWS V14.01,2013-11-25 21:00:00,
2013-11-25 16:04:00,29.7,3.5,30.26,South,189,3.0,6.0,32,0.00,,CLR,0.00,26.00,VWS V14.01,2013-11-25 21:04:00,
2013-11-25 16:05:00,23.0,-7.6,30.15,NNW,332,11.0,16.0,25,0.00,,-RA,0.01,33.00,VWS V14.01,2013-11-25 21:05:00,
2013-11-25 16:09:00,29.7,4.1,30.26,SSW,212,10.0,10.0,33,0.00,,CLR,0.00,11.00,VWS V14.01,2013-11-25 21:09:00,
2013-11-25 16:10:00,23.0,-7.6,30.15,North,353,12.0,19.0,25,0.00,,-RA,0.01,25.00,VWS V14.01,2013-11-25 21:10:00,
2013-11-25 16:14:00,29.5,4.0,30.26,SSW,200,0.0,6.0,33,0.00,,CLR,0.00,0.00,VWS V14.01,2013-11-25 21:14:00,
2013-11-25 16:15:00,23.0,-7.6,30.16,NW,304,8.0,18.0,25,0.00,,-RA,0.01,25.00,VWS V14.01,2013-11-25 21:15:00,
2013-11-25 16:19:00,29.5,4.0,30.25,SSW,199,3.0,8.0,33,0.00,,CLR,0.00,0.00,VWS V14.01,2013-11-25 21:19:00,
2013-11-25 16:20:00,23.0,-7.6,30.16,WNW,292,3.0,11.0,25,0.00,,-RA,0.01,12.00,VWS V14.01,2013-11-25 21:20:00,
2013-11-25 16:24:00,29.4,4.5,30.25,SSW,199,0.0,3.0,34,0.00,,CLR,0.00,0.00,VWS V14.01,2013-11-25 21:24:00,
2013-11-25 16:25:00,22.9,-7.7,30.16,WNW,298,10.0,22.0,25,0.00,,-RA,0.01,11.00,VWS V14.01,2013-11-25 21:25:00,
2013-11-25 16:29:00,29.4,4.5,30.25,South,181,7.0,9.0,34,0.00,,CLR,0.00,0.00,VWS V14.01,2013-11-25 21:29:00,
2013-11-25 16:30:00,22.7,-7.8,30.16,WNW,295,4.0,12.0,25,0.00,,-RA,0.01,0.00,VWS V14.01,2013-11-25 21:30:00,
2013-11-25 16:34:00,29.4,3.9,30.25,SSW,205,9.0,10.0,33,0.00,,CLR,0.00,0.00,VWS V14.01,2013-11-25 21:34:00,
2013-11-25 16:35:00,22.5,-7.2,30.16,WNW,294,8.0,21.0,26,0.00,,-RA,0.01,0.00,VWS V14.01,2013-11-25 21:35:00,
2013-11-25 16:39:00,29.4,3.9,30.25,SSW,203,2.0,4.0,33,0.00,,CLR,0.00,0.00,VWS V14.01,2013-11-25 21:39:00,
2013-11-25 16:40:00,22.4,-7.3,30.16,NW,308,6.0,15.0,26,0.00,,-RA,0.01,0.00,VWS V14.01,2013-11-25 21:40:00,
2013-11-25 16:44:00,29.3,3.8,30.25,SW,216,0.0,7.0,33,0.00,,CLR,0.00,0.00,VWS V14.01,2013-11-25 21:44:00,
2013-11-25 16:45:00,22.4,-7.3,30.17,WNW,288,7.0,11.0,26,0.00,,-RA,0.01,0.00,VWS V14.01,2013-11-25 21:45:00,
2013-11-25 16:49:00,29.4,3.2,30.24,SSW,195,7.0,8.0,32,0.00,,CLR,0.00,0.00,VWS V14.01,2013-11-25 21:49:00,
2013-11-25 16:50:00,22.2,-6.7,30.17,NW,309,11.0,14.0,27,0.00,,-RA,0.01,0.00,VWS V14.01,2013-11-25 21:50:00,
2013-11-25 16:54:00,29.4,3.9,30.24,South,174,4.0,5.0,33,0.00,,CLR,0.00,0.00,VWS V14.01,2013-11-25 21:54:00,
2013-11-25 16:55:00,22.2,-6.7,30.17,NW,322,5.0,17.0,27,0.00,,-RA,0.01,0.00,VWS V14.01,2013-11-25 21:55:00,
2013-11-25 16:59:00,29.4,3.2,30.24,SSE,167,6.0,6.0,32,0.00,,CLR,0.00,0.00,VWS V14.01,2013-11-25 21:59:00,
2013-11-25 17:00:00,22.2,-5.9,30.17,NNW,333,8.0,8.0,28,0.00,,-RA,0.01,0.00,VWS V14.01,2013-11-25 22:00:00,
2013-11-25 17:04:00,29.4,3.2,30.24,South,189,7.0,8.0,32,0.00,,CLR,0.00,0.00,VWS V14.01,2013-11-25 22:04:00,
2013-11-25 17:05:00,22.2,-6.7,30.17,NW,323,12.0,16.0,27,0.00,,-RA,0.01,0.00,VWS V14.01,2013-11-25 22:05:00,
2013-11-25 17:09:00,29.4,3.2,30.24,SSW,195,3.0,8.0,32,0.00,,CLR,0.00,0.00,VWS V14.01,2013-11-25 22:09:00,
2013-11-25 17:10:00,22.1,-6.0,30.17,West,281,4.0,6.0,28,0.00,,-RA,0.01,0.00,VWS V14.01,2013-11-25 22:10:00,
2013-11-25 17:14:00,29.4,3.2,30.24,SSW,193,5.0,8.0,32,0.00,,CLR,0.00,0.00,VWS V14.01,2013-11-25 22:14:00,
2013-11-25 17:15:00,22.1,-6.8,30.18,NW,318,5.0,12.0,27,0.00,,-RA,0.01,0.00,VWS V14.01,2013-11-25 22:15:00,
2013-11-25 17:19:00,29.4,3.9,30.24,South,186,2.0,3.0,33,0.00,,CLR,0.00,0.00,VWS V14.01,2013-11-25 22:19:00,
2013-11-25 17:20:00,21.9,-6.2,30.18,NW,325,3.0,11.0,28,0.00,,-RA,0.01,0.00,VWS V14.01,2013-11-25 22:20:00,
2013-11-25 17:24:00,29.4,3.2,30.24,South,188,4.0,6.0,32,0.00,,CLR,0.00,0.00,VWS V14.01,2013-11-25 22:24:00,
2013-11-25 17:25:00,21.9,-6.9,30.18,West,274,19.0,19.0,27,0.00,,-RA,0.01,0.00,VWS V14.01,2013-11-25 22:25:00,
2013-11-25 17:29:00,29.3,3.1,30.24,SSW,199,10.0,10.0,32,0.00,,CLR,0.00,0.00,VWS V14.01,2013-11-25 22:29:00,
2013-11-25 17:30:00,22.1,-6.8,30.19,WNW,296,2.0,10.0,27,0.00,,-RA,0.01,0.00,VWS V14.01,2013-11-25 22:30:00,
2013-11-25 17:34:00,29.3,3.1,30.24,SSW,210,5.0,8.0,32,0.00,,CLR,0.00,0.00,VWS V14.01,2013-11-25 22:34:00,
2013-11-25 17:35:00,22.1,-6.8,30.19,West,281,3.0,8.0,27,0.00,,-RA,0.01,0.00,VWS V14.01,2013-11-25 22:35:00,
2013-11-25 17:39:00,29.3,3.1,30.24,SSW,208,6.0,10.0,32,0.00,,CLR,0.00,0.00,VWS V14.01,2013-11-25 22:39:00,
2013-11-25 17:40:00,22.1,-6.8,30.19,West,280,8.0,14.0,27,0.00,,-RA,0.01,0.00,VWS V14.01,2013-11-25 22:40:00,
2013-11-25 17:44:00,29.3,3.1,30.24,SW,219,9.0,9.0,32,0.00,,CLR,0.00,0.00,VWS V14.01,2013-11-25 22:44:00,
2013-11-25 17:45:00,21.9,-6.9,30.19,West,268,1.0,13.0,27,0.00,,-RA,0.01,0.00,VWS V14.01,2013-11-25 22:45:00,
2013-11-25 17:49:00,29.3,3.1,30.24,South,188,5.0,5.0,32,0.00,,CLR,0.00,0.00,VWS V14.01,2013-11-25 22:49:00,
2013-11-25 17:50:00,21.9,-6.9,30.19,NW,325,12.0,12.0,27,0.00,,-RA,0.01,0.00,VWS V14.01,2013-11-25 22:50:00,
2013-11-25 17:54:00,29.3,3.8,30.24,SSW,208,5.0,9.0,33,0.00,,CLR,0.00,0.00,VWS V14.01,2013-11-25 22:54:00,
2013-11-25 17:55:00,21.9,-6.9,30.19,WNW,298,6.0,7.0,27,0.00,,-RA,0.01,0.00,VWS V14.01,2013-11-25 22:55:00,
2013-11-25 17:59:00,29.1,3.6,30.24,South,189,3.0,7.0,33,0.00,,CLR,0.00,0.00,VWS V14.01,2013-11-25 22:59:00,
2013-11-25 18:00:00,21.8,-7.0,30.20,WNW,299,4.0,13.0,27,0.00,,-RA,0.01,0.00,VWS V14.01,2013-11-25 23:00:00,
2013-11-25 18:04:00,29.1,3.6,30.24,SSW,195,0.0,6.0,33,0.00,,CLR,0.00,0.00,VWS V14.01,2013-11-25 23:04:00,
2013-11-25 18:05:00,21.8,-7.8,30.20,WNW,299,10.0,17.0,26,0.00,,-RA,0.01,0.00,VWS V14.01,2013-11-25 23:05:00,
2013-11-25 18:09:00,29.1,4.2,30.24,SSW,199,3.0,6.0,34,0.00,,CLR,0.00,0.00,VWS V14.01,2013-11-25 23:09:00,
2013-11-25 18:10:00,21.8,-7.8,30.20,NW,326,2.0,9.0,26,0.00,,-RA,0.01,0.00,VWS V14.01,2013-11-25 23:10:00,
2013-11-25 18:14:00,29.1,4.2,30.24,South,188,4.0,6.0,34,0.00,,CLR,0.00,0.00,VWS V14.01,2013-11-25 23:14:00,
2013-11-25 18:15:00,21.6,-8.0,30.20,WNW,291,5.0,14.0,26,0.00,,-RA,0.01,0.00,VWS V14.01,2013-11-25 23:15:00,
2013-11-25 18:19:00,29.0,4.2,30.24,SSW,205,5.0,7.0,34,0.00,,CLR,0.00,0.00,VWS V14.01,2013-11-25 23:19:00,
2013-11-25 18:20:00,21.6,-8.0,30.20,WSW,243,6.0,12.0,26,0.00,,-RA,0.01,0.00,VWS V14.01,2013-11-25 23:20:00,
2013-11-25 18:24:00,28.8,4.0,30.24,South,178,4.0,7.0,34,0.00,,CLR,0.00,0.00,VWS V14.01,2013-11-25 23:24:00,
2013-11-25 18:25:00,21.6,-8.0,30.20,West,281,4.0,13.0,26,0.00,,-RA,0.01,0.00,VWS V14.01,2013-11-25 23:25:00,
2013-11-25 18:29:00,28.8,4.6,30.24,SSE,168,0.0,6.0,35,0.00,,CLR,0.00,0.00,VWS V14.01,2013-11-25 23:29:00,
2013-11-25 18:30:00,21.4,-8.1,30.21,NW,313,6.0,12.0,26,0.00,,-RA,0.01,0.00,VWS V14.01,2013-11-25 23:30:00,
2013-11-25 18:34:00,28.7,4.5,30.24,SSW,208,6.0,10.0,35,0.00,,CLR,0.00,0.00,VWS V14.01,2013-11-25 23:34:00,
2013-11-25 18:35:00,21.4,-8.1,30.21,WNW,294,10.0,10.0,26,0.00,,-RA,0.01,0.00,VWS V14.01,2013-11-25 23:35:00,
2013-11-25 18:39:00,28.7,4.5,30.24,SSW,203,3.0,8.0,35,0.00,,CLR,0.00,0.00,VWS V14.01,2013-11-25 23:39:00,
2013-11-25 18:40:00,21.4,-8.1,30.21,WNW,287,8.0,11.0,26,0.00,,-RA,0.01,0.00,VWS V14.01,2013-11-25 23:40:00,
2013-11-25 18:44:00,28.5,5.0,30.24,South,178,3.0,7.0,36,0.00,,CLR,0.00,0.00,VWS V14.01,2013-11-25 23:44:00,
2013-11-25 18:45:00,21.3,-8.2,30.21,WNW,294,7.0,12.0,26,0.00,,-RA,0.01,0.00,VWS V14.01,2013-11-25 23:45:00,
2013-11-25 18:49:00,28.4,4.9,30.24,SSW,192,9.0,14.0,36,0.00,,CLR,0.00,0.00,VWS V14.01,2013-11-25 23:49:00,
2013-11-25 18:50:00,21.3,-8.2,30.21,WSW,248,12.0,12.0,26,0.00,,-RA,0.01,0.00,VWS V14.01,2013-11-25 23:50:00,
2013-11-25 18:54:00,28.4,4.9,30.24,South,189,10.0,10.0,36,0.00,,CLR,0.00,0.00,VWS V14.01,2013-11-25 23:54:00,
2013-11-25 18:55:00,21.3,-8.2,30.21,West,281,5.0,9.0,26,0.00,,-RA,0.01,0.00,VWS V14.01,2013-11-25 23:55:00,
2013-11-25 18:59:00,28.4,4.9,30.24,SSW,198,7.0,10.0,36,0.00,,CLR,0.00,0.00,VWS V14.01,2013-11-25 23:59:00,
2013-11-25 19:00:00,21.3,-7.5,30.21,WNW,296,0.0,12.0,27,0.00,,-RA,0.01,0.00,VWS V14.01,2013-11-26 00:00:00,
2013-11-25 19:04:00,28.2,5.3,30.24,SSW,196,3.0,7.0,37,0.00,,CLR,0.00,0.00,VWS V14.01,2013-11-26 00:04:00,
2013-11-25 19:05:00,21.3,-7.5,30.21,North,0,1.0,12.0,27,0.00,,-RA,0.01,0.00,VWS V14.01,2013-11-26 00:05:00,
2013-11-25 19:09:00,28.2,5.3,30.24,SSW,193,4.0,12.0,37,0.00,,CLR,0.00,0.00,VWS V14.01,2013-11-26 00:09:00,
2013-11-25 19:10:00,21.1,-7.6,30.21,WSW,257,0.0,11.0,27,0.00,,-RA,0.01,0.00,VWS V14.01,2013-11-26 00:10:00,
2013-11-25 19:14:00,28.2,5.3,30.24,South,179,3.0,10.0,37,0.00,,CLR,0.00,0.00,VWS V14.01,2013-11-26 00:14:00,
2013-11-25 19:15:00,21.1,-7.6,30.22,NW,305,2.0,13.0,27,0.00,,-RA,0.01,0.00,VWS V14.01,2013-11-26 00:15:00,
2013-11-25 19:19:00,28.2,5.3,30.24,South,189,1.0,6.0,37,0.00,,CLR,0.00,0.00,VWS V14.01,2013-11-26 00:19:00,
2013-11-25 19:20:00,21.1,-7.6,30.22,WNW,295,5.0,11.0,27,0.00,,-RA,0.01,0.00,VWS V14.01,2013-11-26 00:20:00,
2013-11-25 19:24:00,28.1,5.2,30.24,South,184,4.0,11.0,37,0.00,,CLR,0.00,0.00,VWS V14.01,2013-11-26 00:24:00,
2013-11-25 19:25:00,21.0,-7.0,30.22,West,268,0.0,5.0,28,0.00,,-RA,0.01,0.00,VWS V14.01,2013-11-26 00:25:00,
2013-11-25 19:29:00,28.1,5.2,30.24,SSW,195,5.0,11.0,37,0.00,,CLR,0.00,0.00,VWS V14.01,2013-11-26 00:29:00,
2013-11-25 19:30:00,21.0,-7.0,30.21,West,267,3.0,7.0,28,0.00,,-RA,0.01,0.00,VWS V14.01,2013-11-26 00:30:00,
2013-11-25 19:34:00,28.1,5.2,30.24,SSW,205,7.0,8.0,37,0.00,,CLR,0.00,0.00,VWS V14.01,2013-11-26 00:34:00,
2013-11-25 19:35:00,20.8,-7.2,30.21,West,267,7.0,11.0,28,0.00,,-RA,0.01,0.00,VWS V14.01,2013-11-26 00:35:00,
2013-11-25 19:39:00,28.1,5.2,30.24,SSE,168,4.0,12.0,37,0.00,,CLR,0.00,0.00,VWS V14.01,2013-11-26 00:39:00,
2013-11-25 19:40:00,20.8,-7.9,30.21,NW,304,0.0,10.0,27,0.00,,-RA,0.01,0.00,VWS V14.01,2013-11-26 00:40:00,
2013-11-25 19:44:00,28.1,4.6,30.24,South,181,3.0,8.0,36,0.00,,CLR,0.00,0.00,VWS V14.01,2013-11-26 00:44:00,
2013-11-25 19:45:00,20.8,-7.2,30.22,NW,309,10.0,11.0,28,0.00,,-RA,0.01,0.00,VWS V14.01,2013-11-26 00:45:00,
2013-11-25 19:49:00,28.1,5.2,30.24,South,176,2.0,6.0,37,0.00,,CLR,0.00,0.00,VWS V14.01,2013-11-26 00:49:00,
2013-11-25 19:50:00,20.8,-7.2,30.22,WNW,301,5.0,13.0,28,0.00,,-RA,0.01,0.00,VWS V14.01,2013-11-26 00:50:00,
2013-11-25 19:54:00,28.1,4.6,30.24,South,189,2.0,10.0,36,0.00,,CLR,0.00,0.00,VWS V14.01,2013-11-26 00:54:00,
2013-11-25 19:55:00,20.8,-7.2,30.22,West,280,6.0,11.0,28,0.00,,-RA,0.01,0.00,VWS V14.01,2013-11-26 00:55:00,
2013-11-25 19:59:00,28.2,4.1,30.24,South,186,4.0,10.0,35,0.00,,CLR,0.00,0.00,VWS V14.01,2013-11-26 00:59:00,
2013-11-25 20:00:00,20.8,-7.2,30.22,WSW,239,10.0,13.0,28,0.00,,-RA,0.01,0.00,VWS V14.01,2013-11-26 01:00:00,
2013-11-25 20:04:00,28.2,4.1,30.23,South,185,3.0,11.0,35,0.00,,CLR,0.00,0.00,VWS V14.01,2013-11-26 01:04:00,
2013-11-25 20:05:00,20.8,-7.2,30.22,West,281,0.0,8.0,28,0.00,,-RA,0.01,0.00,VWS V14.01,2013-11-26 01:05:00,
2013-11-25 20:09:00,28.2,4.1,30.23,South,184,7.0,11.0,35,0.00,,CLR,0.00,0.00,VWS V14.01,2013-11-26 01:09:00,
2013-11-25 20:10:00,20.6,-7.3,30.22,WSW,239,0.0,6.0,28,0.00,,-RA,0.01,0.00,VWS V14.01,2013-11-26 01:10:00,
2013-11-25 20:14:00,28.2,4.1,30.23,South,182,7.0,8.0,35,0.00,,CLR,0.00,0.00,VWS V14.01,2013-11-26 01:14:00,
2013-11-25 20:15:00,20.5,-8.2,30.22,West,265,4.0,8.0,27,0.00,,-RA,0.01,0.00,VWS V14.01,2013-11-26 01:15:00,
2013-11-25 20:19:00,28.2,4.1,30.22,SSW,193,4.0,8.0,35,0.00,,CLR,0.00,0.00,VWS V14.01,2013-11-26 01:19:00,
2013-11-25 20:20:00,20.6,-7.3,30.22,WNW,289,7.0,13.0,28,0.00,,-RA,0.01,0.00,VWS V14.01,2013-11-26 01:20:00,
2013-11-25 20:24:00,28.4,3.6,30.22,South,178,5.0,6.0,34,0.00,,CLR,0.00,0.00,VWS V14.01,2013-11-26 01:24:00,
2013-11-25 20:25:00,20.6,-7.3,30.22,West,271,7.0,10.0,28,0.00,,-RA,0.01,0.00,VWS V14.01,2013-11-26 01:25:00,
2013-11-25 20:29:00,28.4,3.0,30.22,SSW,206,1.0,11.0,33,0.00,,CLR,0.00,0.00,VWS V14.01,2013-11-26 01:29:00,
2013-11-25 20:30:00,20.5,-8.2,30.22,West,275,8.0,8.0,27,0.00,,-RA,0.01,0.00,VWS V14.01,2013-11-26 01:30:00,
2013-11-25 20:34:00,28.4,3.6,30.22,SW,215,5.0,10.0,34,0.00,,CLR,0.00,0.00,VWS V14.01,2013-11-26 01:34:00,
2013-11-25 20:35:00,20.5,-8.2,30.22,West,275,5.0,7.0,27,0.00,,-RA,0.01,0.00,VWS V14.01,2013-11-26 01:35:00,
2013-11-25 20:39:00,28.4,3.0,30.22,SSW,200,7.0,10.0,33,0.00,,CLR,0.00,0.00,VWS V14.01,2013-11-26 01:39:00,
2013-11-25 20:40:00,20.5,-7.4,30.22,West,264,0.0,7.0,28,0.00,,-RA,0.01,0.00,VWS V14.01,2013-11-26 01:40:00,
2013-11-25 20:44:00,28.4,3.0,30.22,SSW,206,3.0,6.0,33,0.00,,CLR,0.00,0.00,VWS V14.01,2013-11-26 01:44:00,
2013-11-25 20:45:00,20.3,-7.6,30.24,West,265,0.0,7.0,28,0.00,,-RA,0.01,0.00,VWS V14.01,2013-11-26 01:45:00,
2013-11-25 20:49:00,28.4,2.3,30.22,SW,227,5.0,10.0,32,0.00,,CLR,0.00,0.00,VWS V14.01,2013-11-26 01:49:00,
2013-11-25 20:50:00,20.3,-7.6,30.24,WNW,292,1.0,8.0,28,0.00,,-RA,0.01,0.00,VWS V14.01,2013-11-26 01:50:00,
2013-11-25 20:54:00,28.4,2.3,30.22,South,184,2.0,10.0,32,0.00,,CLR,0.00,0.00,VWS V14.01,2013-11-26 01:54:00,
2013-11-25 20:55:00,20.5,-7.4,30.24,WSW,256,5.0,11.0,28,0.00,,-RA,0.01,0.00,VWS V14.01,2013-11-26 01:55:00,
2013-11-25 20:59:00,28.4,2.3,30.22,SSW,210,10.0,12.0,32,0.00,,CLR,0.00,0.00,VWS V14.01,2013-11-26 01:59:00,
2013-11-25 21:00:00,20.5,-7.4,30.23,WSW,257,6.0,11.0,28,0.00,,-RA,0.01,0.00,VWS V14.01,2013-11-26 02:00:00,
2013-11-25 21:04:00,28.4,2.3,30.22,SSW,200,5.0,11.0,32,0.00,,CLR,0.00,0.00,VWS V14.01,2013-11-26 02:04:00,
2013-11-25 21:05:00,20.3,-6.9,30.23,West,275,3.0,9.0,29,0.00,,-RA,0.01,0.00,VWS V14.01,2013-11-26 02:05:00,
2013-11-25 21:09:00,28.5,2.4,30.22,South,186,6.0,10.0,32,0.00,,CLR,0.00,0.00,VWS V14.01,2013-11-26 02:09:00,
2013-11-25 21:10:00,20.3,-7.6,30.23,NW,312,13.0,14.0,28,0.00,,-RA,0.01,0.00,VWS V14.01,2013-11-26 02:10:00,
2013-11-25 21:14:00,28.5,1.7,30.22,SSW,193,12.0,13.0,31,0.00,,CLR,0.00,0.00,VWS V14.01,2013-11-26 02:14:00,
2013-11-25 21:15:00,20.3,-6.9,30.23,WNW,291,0.0,7.0,29,0.00,,-RA,0.01,0.00,VWS V14.01,2013-11-26 02:15:00,
2013-11-25 21:19:00,28.5,1.7,30.22,SSW,206,12.0,12.0,31,0.00,,CLR,0.00,0.00,VWS V14.01,2013-11-26 02:19:00,
2013-11-25 21:20:00,20.3,-6.9,30.23,West,281,10.0,14.0,29,0.00,,-RA,0.01,0.00,VWS V14.01,2013-11-26 02:20:00,
2013-11-25 21:24:00,28.5,1.7,30.22,SW,215,12.0,13.0,31,0.00,,CLR,0.00,0.00,VWS V14.01,2013-11-26 02:24:00,
2013-11-25 21:25:00,20.3,-6.2,30.23,WNW,285,0.0,6.0,30,0.00,,-RA,0.01,0.00,VWS V14.01,2013-11-26 02:25:00,
2013-11-25 21:29:00,28.5,1.7,30.22,South,172,5.0,11.0,31,0.00,,CLR,0.00,0.00,VWS V14.01,2013-11-26 02:29:00,
2013-11-25 21:30:00,20.2,-6.3,30.22,WNW,299,3.0,10.0,30,0.00,,-RA,0.01,0.00,VWS V14.01,2013-11-26 02:30:00,
2013-11-25 21:34:00,28.5,1.7,30.22,SSW,193,3.0,14.0,31,0.00,,CLR,0.00,0.00,VWS V14.01,2013-11-26 02:34:00,
2013-11-25 21:35:00,20.0,-5.8,30.22,NW,313,8.0,10.0,31,0.00,,-RA,0.01,0.00,VWS V14.01,2013-11-26 02:35:00,
2013-11-25 21:39:00,28.5,1.7,30.22,SSW,212,0.0,7.0,31,0.00,,CLR,0.00,0.00,VWS V14.01,2013-11-26 02:39:00,
2013-11-25 21:40:00,20.0,-5.8,30.22,NW,312,1.0,12.0,31,0.00,,-RA,0.01,0.00,VWS V14.01,2013-11-26 02:40:00,
2013-11-25 21:44:00,28.5,2.4,30.22,SSW,205,1.0,10.0,32,0.00,,CLR,0.00,0.00,VWS V14.01,2013-11-26 02:44:00,
2013-11-25 21:45:00,20.2,-4.9,30.23,NW,312,11.0,11.0,32,0.00,,-RA,0.01,0.00,VWS V14.01,2013-11-26 02:45:00,
2013-11-25 21:49:00,28.5,1.7,30.22,SSW,196,7.0,10.0,31,0.00,,CLR,0.00,0.00,VWS V14.01,2013-11-26 02:49:00,
2013-11-25 21:50:00,20.0,-5.1,30.23,NNW,344,5.0,10.0,32,0.00,,-RA,0.01,0.00,VWS V14.01,2013-11-26 02:50:00,
2013-11-25 21:54:00,28.5,2.4,30.22,SW,232,11.0,12.0,32,0.00,,CLR,0.00,0.00,VWS V14.01,2013-11-26 02:54:00,
2013-11-25 21:55:00,20.0,-5.1,30.23,NNW,328,7.0,13.0,32,0.00,,-RA,0.01,0.00,VWS V14.01,2013-11-26 02:55:00,
2013-11-25 21:59:00,28.5,2.4,30.22,SSW,206,5.0,10.0,32,0.00,,CLR,0.00,0.00,VWS V14.01,2013-11-26 02:59:00,
2013-11-25 22:00:00,20.0,-4.5,30.24,North,352,5.0,10.0,33,0.00,,-RA,0.01,0.00,VWS V14.01,2013-11-26 03:00:00,
2013-11-25 22:04:00,28.5,2.4,30.21,SSW,213,6.0,13.0,32,0.00,,CLR,0.00,0.00,VWS V14.01,2013-11-26 03:04:00,
2013-11-25 22:05:00,19.9,-4.6,30.24,WNW,301,9.0,9.0,33,0.00,,-RA,0.01,0.00,VWS V14.01,2013-11-26 03:05:00,
2013-11-25 22:09:00,28.5,3.1,30.21,SSW,198,5.0,7.0,33,0.00,,CLR,0.00,0.00,VWS V14.01,2013-11-26 03:09:00,
2013-11-25 22:10:00,19.9,-3.9,30.24,NW,308,2.0,9.0,34,0.00,,-RA,0.01,0.00,VWS V14.01,2013-11-26 03:10:00,
2013-11-25 22:14:00,28.5,3.1,30.21,SSW,196,6.0,9.0,33,0.00,,CLR,0.00,0.00,VWS V14.01,2013-11-26 03:14:00,
2013-11-25 22:15:00,19.9,-3.9,30.24,WNW,291,5.0,7.0,34,0.00,,-RA,0.01,0.00,VWS V14.01,2013-11-26 03:15:00,
2013-11-25 22:19:00,28.5,3.7,30.21,SSW,199,5.0,5.0,34,0.00,,CLR,0.00,0.00,VWS V14.01,2013-11-26 03:19:00,
2013-11-25 22:20:00,19.9,-3.9,30.24,West,274,5.0,12.0,34,0.00,,-RA,0.01,0.00,VWS V14.01,2013-11-26 03:20:00,
2013-11-25 22:24:00,28.5,3.7,30.21,South,182,2.0,10.0,34,0.00,,CLR,0.00,0.00,VWS V14.01,2013-11-26 03:24:00,
2013-11-25 22:25:00,19.9,-3.9,30.24,WSW,243,2.0,6.0,34,0.00,,-RA,0.01,0.00,VWS V14.01,2013-11-26 03:25:00,
2013-11-25 22:29:00,28.4,3.6,30.21,South,188,2.0,8.0,34,0.00,,CLR,0.00,0.00,VWS V14.01,2013-11-26 03:29:00,
2013-11-25 22:30:00,19.7,-3.5,30.24,NNW,330,1.0,6.0,35,0.00,,-RA,0.01,0.00,VWS V14.01,2013-11-26 03:30:00,
2013-11-25 22:34:00,28.4,3.6,30.20,South,186,1.0,3.0,34,0.00,,CLR,0.00,0.00,VWS V14.01,2013-11-26 03:34:00,
2013-11-25 22:35:00,19.5,-3.7,30.24,West,265,1.0,10.0,35,0.00,,-RA,0.01,0.00,VWS V14.01,2013-11-26 03:35:00,
2013-11-25 22:39:00,28.4,3.6,30.20,SSW,192,3.0,3.0,34,0.00,,CLR,0.00,0.00,VWS V14.01,2013-11-26 03:39:00,
2013-11-25 22:40:00,19.5,-3.7,30.24,WNW,289,4.0,11.0,35,0.00,,-RA,0.01,0.00,VWS V14.01,2013-11-26 03:40:00,
2013-11-25 22:44:00,28.4,3.0,30.20,SSW,202,4.0,8.0,33,0.00,,CLR,0.00,0.00,VWS V14.01,2013-11-26 03:44:00,
2013-11-25 22:45:00,19.5,-3.7,30.24,West,268,6.0,8.0,35,0.00,,-RA,0.01,0.00,VWS V14.01,2013-11-26 03:45:00,
2013-11-25 22:49:00,28.4,3.0,30.21,South,179,6.0,7.0,33,0.00,,CLR,0.00,0.00,VWS V14.01,2013-11-26 03:49:00,
2013-11-25 22:50:00,19.5,-3.7,30.24,WSW,257,3.0,7.0,35,0.00,,-RA,0.01,0.00,VWS V14.01,2013-11-26 03:50:00,
2013-11-25 22:54:00,28.4,3.0,30.21,SSW,203,7.0,9.0,33,0.00,,CLR,0.00,0.00,VWS V14.01,2013-11-26 03:54:00,
2013-11-25 22:55:00,19.4,-3.2,30.24,WSW,253,11.0,11.0,36,0.00,,-RA,0.01,0.00,VWS V14.01,2013-11-26 03:55:00,
2013-11-25 22:59:00,28.4,3.6,30.21,SW,216,2.0,6.0,34,0.00,,CLR,0.00,0.00,VWS V14.01,2013-11-26 03:59:00,
2013-11-25 23:00:00,19.4,-3.2,30.24,NNW,339,0.0,6.0,36,0.00,,-RA,0.01,0.00,VWS V14.01,2013-11-26 04:00:00,
2013-11-25 23:04:00,28.4,3.0,30.20,South,189,3.0,6.0,33,0.00,,CLR,0.00,0.00,VWS V14.01,2013-11-26 04:04:00,
2013-11-25 23:05:00,19.4,-3.2,30.24,WSW,250,5.0,7.0,36,0.00,,-RA,0.01,0.00,VWS V14.01,2013-11-26 04:05:00,
2013-11-25 23:09:00,28.4,3.6,30.20,SSW,213,7.0,8.0,34,0.00,,CLR,0.00,0.00,VWS V14.01,2013-11-26 04:09:00,
2013-11-25 23:10:00,19.2,-3.4,30.24,NW,319,14.0,14.0,36,0.00,,-RA,0.01,0.00,VWS V14.01,2013-11-26 04:10:00,
2013-11-25 23:14:00,28.4,3.6,30.20,South,191,0.0,2.0,34,0.00,,CLR,0.00,0.00,VWS V14.01,2013-11-26 04:14:00,
2013-11-25 23:15:00,19.4,-3.2,30.25,West,265,1.0,6.0,36,0.00,,-RA,0.01,0.00,VWS V14.01,2013-11-26 04:15:00,
2013-11-25 23:19:00,28.4,3.6,30.19,SSW,195,1.0,6.0,34,0.00,,CLR,0.00,0.00,VWS V14.01,2013-11-26 04:19:00,
2013-11-25 23:20:00,19.4,-3.2,30.25,WNW,296,7.0,14.0,36,0.00,,-RA,0.01,0.00,VWS V14.01,2013-11-26 04:20:00,
2013-11-25 23:23:00,28.4,3.6,30.19,SSW,192,1.0,5.0,34,0.00,,CLR,0.00,0.00,VWS V14.01,2013-11-26 04:23:00,
2013-11-25 23:25:00,19.5,-3.1,30.25,WNW,291,6.0,10.0,36,0.00,,-RA,0.01,0.00,VWS V14.01,2013-11-26 04:25:00,
2013-11-25 23:28:00,28.4,3.6,30.19,SSW,196,3.0,6.0,34,0.00,,CLR,0.00,0.00,VWS V14.01,2013-11-26 04:28:00,
2013-11-25 23:30:00,19.4,-2.6,30.25,WNW,285,6.0,10.0,37,0.00,,-RA,0.01,0.00,VWS V14.01,2013-11-26 04:30:00,
2013-11-25 23:33:00,28.4,3.6,30.21,South,188,1.0,7.0,34,0.00,,CLR,0.00,0.00,VWS V14.01,2013-11-26 04:33:00,
2013-11-25 23:35:00,19.4,-2.6,30.25,West,280,6.0,7.0,37,0.00,,-RA,0.01,0.00,VWS V14.01,2013-11-26 04:35:00,
2013-11-25 23:38:00,28.5,3.7,30.21,SSW,199,3.0,10.0,34,0.00,,CLR,0.00,0.00,VWS V14.01,2013-11-26 04:38:00,
2013-11-25 23:40:00,19.2,-2.8,30.25,WNW,294,9.0,11.0,37,0.00,,-RA,0.01,0.00,VWS V14.01,2013-11-26 04:40:00,
2013-11-25 23:43:00,28.5,4.3,30.21,South,181,1.0,6.0,35,0.00,,CLR,0.00,0.00,VWS V14.01,2013-11-26 04:43:00,
2013-11-25 23:45:00,19.4,-2.6,30.26,NW,305,5.0,11.0,37,0.00,,-RA,0.01,0.00,VWS V14.01,2013-11-26 04:45:00,
2013-11-25 23:48:00,28.5,3.7,30.20,South,182,2.0,7.0,34,0.00,,CLR,0.00,0.00,VWS V14.01,2013-11-26 04:48:00,
2013-11-25 23:50:00,19.4,-2.6,30.26,West,261,0.0,9.0,37,0.00,,-RA,0.01,0.00,VWS V14.01,2013-11-26 04:50:00,
2013-11-25 23:53:00,28.5,3.7,30.20,South,185,5.0,6.0,34,0.00,,CLR,0.00,0.00,VWS V14.01,2013-11-26 04:53:00,
2013-11-25 23:55:00,19.2,-2.2,30.26,WNW,294,5.0,6.0,38,0.00,,-RA,0.01,0.00,VWS V14.01,2013-11-26 04:55:00,
2013-11-25 23:58:00,28.5,3.7,30.20,SW,215,5.0,11.0,34,0.00,,CLR,0.00,0.00,VWS V14.01,2013-11-26 04:58:00,